Latitude: N 50° 09' 49" Longitude: W 05° 11' 53" Elevation: 168m ASL

There are 34 visitors online

Adverts

<- Previous Day | Today | Next Day ->

All Data for 20 November 2017

Time
A - D
Temp
A - D
Dew Point
A - D
Humidity
A - D
Pressure
A - D
Wind
A - D
Wind Dir Gust
A - D
Rain Rate
A - D
Rain Total
00:00 10.7 10.6 99 1021.5 17.4 WNW 17.4 0.0 0.0
00:00 10.7 10.6 99 1021.5 17.4 WNW 17.4 0.0 0.0
00:02 10.7 10.6 99 1021.4 17.4 WNW 17.4 0.0 0.0
00:02 10.7 10.6 99 1021.4 17.4 WNW 17.4 0.0 0.0
00:04 10.7 10.6 99 1021.2 17.4 WNW 17.4 0.0 0.0
00:04 10.7 10.6 99 1021.2 17.4 WNW 17.4 0.0 0.0
00:06 10.7 10.6 99 1021.5 11.4 SW 17.4 0.0 0.0
00:06 10.7 10.6 99 1021.5 11.4 SW 17.4 0.0 0.0
00:07 10.7 10.6 99 1021.3 11.4 SE 17.4 0.0 0.0
00:09 10.7 10.6 99 1021.3 8.3 S 17.4 0.0 0.0
00:10 10.7 10.6 99 1021.4 13.0 W 17.4 0.0 0.0
00:12 10.7 10.6 99 1021.3 9.8 S 17.4 0.0 0.0
00:13 10.7 10.6 99 1021.6 10.7 SW 17.4 0.0 0.0
00:13 10.7 10.6 99 1021.6 10.7 SW 17.4 0.0 0.0
00:15 10.7 10.6 99 1021.7 8.3 S 17.4 0.0 0.0
00:16 10.7 10.6 99 1021.6 8.3 S 14.5 0.0 0.0
00:17 10.7 10.6 99 1021.7 8.3 N 14.5 0.0 0.0
00:17 10.7 10.6 99 1021.7 8.3 N 14.5 0.0 0.0
00:19 10.7 10.6 99 1021.7 9.2 S 14.5 0.0 0.0
00:20 10.7 10.6 99 1021.7 8.3 SW 14.5 0.0 0.0
00:21 10.7 10.6 99 1021.6 9.2 S 14.5 0.0 0.0
00:22 10.7 10.6 99 1021.5 9.8 SW 12.1 0.0 0.0
00:23 10.7 10.6 99 1021.5 12.1 S 12.1 0.0 0.0
00:23 10.7 10.6 99 1021.5 12.1 S 12.1 0.0 0.0
00:25 10.7 10.6 99 1021.3 10.7 S 12.1 0.0 0.0
00:26 10.7 10.6 99 1021.3 11.4 S 12.1 0.0 0.0
00:27 10.7 10.6 99 1021.4 9.2 SW 12.1 0.0 0.0
00:28 10.7 10.6 99 1021.2 9.8 S 12.1 0.0 0.0
00:29 10.7 10.6 99 1021.2 9.2 S 12.1 0.0 0.0
00:30 10.7 10.6 99 1021.3 6.9 S 12.1 0.0 0.0
00:31 10.7 10.6 99 1021.2 9.8 SW 12.1 0.0 0.0
00:31 10.7 10.6 99 1021.2 9.8 SW 12.1 0.0 0.0
00:32 10.7 10.6 99 1021.3 10.7 S 12.1 0.0 0.0
00:34 10.7 10.6 99 1021.3 10.7 S 11.4 0.0 0.0
00:35 10.7 10.6 99 1021.2 14.5 S 14.5 0.0 0.0
00:36 10.7 10.6 99 1021.3 10.7 S 14.5 0.0 0.0
00:37 10.7 10.6 99 1021.1 10.7 WSW 14.5 0.0 0.0
00:37 10.7 10.6 99 1021.1 10.7 WSW 14.5 0.0 0.0
00:38 10.7 10.6 99 1021.1 5.4 S 14.5 0.0 0.0
00:40 10.7 10.6 99 1021.0 9.8 S 14.5 0.0 0.0
00:41 10.7 10.6 99 1021.1 9.2 S 14.5 0.0 0.0
00:42 10.7 10.6 99 1021.0 9.8 S 14.5 0.0 0.0
00:42 10.7 10.6 99 1021.0 9.8 S 14.5 0.0 0.0
00:43 10.7 10.6 99 1021.1 8.3 S 14.5 0.0 0.0
00:44 10.7 10.6 99 1021.2 11.4 SW 14.5 0.0 0.0
00:45 10.7 10.6 99 1021.1 9.8 SW 13.0 0.0 0.0
00:47 10.7 10.6 99 1021.1 9.8 N 13.0 0.0 0.0
00:48 10.7 10.6 99 1021.2 8.3 SW 13.0 0.0 0.0
00:49 10.7 10.6 99 1021.1 9.2 S 13.0 0.0 0.0
00:50 10.7 10.6 99 1021.1 7.6 S 13.0 0.0 0.0
00:51 10.7 10.6 99 1021.1 11.4 S 13.0 0.0 0.0
00:51 10.7 10.6 99 1021.1 11.4 S 13.0 0.0 0.0
00:52 10.7 10.6 99 1021.0 9.8 S 11.4 0.0 0.0
00:53 10.7 10.6 99 1021.2 9.8 SW 11.4 0.0 0.0
00:54 10.7 10.6 99 1021.1 11.4 S 11.4 0.0 0.0
00:56 10.7 10.6 99 1021.1 8.3 S 11.4 0.0 0.0
00:57 10.7 10.6 99 1021.2 8.3 S 11.4 0.0 0.0
00:58 10.7 10.6 99 1021.1 8.3 S 11.4 0.0 0.0
00:59 10.7 10.6 99 1021.2 8.3 S 11.4 0.0 0.0
00:59 10.7 10.6 99 1021.2 8.3 S 11.4 0.0 0.0
01:00 10.7 10.6 99 1021.1 8.3 S 11.4 0.0 0.0
01:02 10.7 10.6 99 1021.2 8.3 S 11.4 0.0 0.0
01:03 10.7 10.6 99 1021.1 8.3 S 11.4 0.0 0.0
01:04 10.7 10.6 99 1021.0 8.3 S 11.4 0.0 0.0
01:05 10.7 10.6 99 1020.9 8.3 S 9.2 0.0 0.0
01:05 10.7 10.6 99 1020.9 8.3 S 9.2 0.0 0.0
01:07 10.7 10.6 99 1021.1 9.8 SE 9.8 0.0 0.0
01:08 10.8 10.7 99 1021.0 11.4 S 11.4 0.0 0.0
01:09 10.7 10.6 99 1020.9 10.7 SE 11.4 0.0 0.0
01:10 10.7 10.6 99 1020.9 7.6 S 11.4 0.0 0.0
01:10 10.7 10.6 99 1020.9 7.6 S 11.4 0.0 0.0
01:11 10.7 10.6 99 1021.0 13.6 S 13.6 0.0 0.0
01:13 10.7 10.6 99 1020.7 11.4 S 13.6 0.0 0.0
01:14 10.7 10.6 99 1020.9 12.1 S 13.6 0.0 0.0
01:14 10.7 10.6 99 1020.9 12.1 S 13.6 0.0 0.0
01:15 10.8 10.7 99 1020.9 9.2 SE 13.6 0.0 0.0
01:17 10.8 10.7 99 1020.8 9.8 SW 13.6 0.0 0.0
01:18 10.8 10.7 99 1020.9 10.7 S 13.6 0.0 0.0
01:19 10.8 10.7 99 1020.8 11.4 SE 13.6 0.0 0.0
01:20 10.8 10.7 99 1020.8 10.7 S 13.6 0.0 0.0
01:21 10.8 10.7 99 1020.8 10.7 S 13.6 0.0 0.0
01:21 10.8 10.7 99 1020.8 10.7 S 13.6 0.0 0.0
01:22 10.8 10.7 99 1020.7 9.8 S 13.0 0.0 0.0
01:23 10.8 10.7 99 1020.7 8.3 SW 13.0 0.0 0.0
01:25 10.8 10.7 99 1020.8 10.7 NW 13.0 0.0 0.0
01:26 10.8 10.7 99 1020.7 12.1 S 13.0 0.0 0.0
01:27 10.8 10.7 99 1020.7 9.8 S 13.0 0.0 0.0
01:28 10.8 10.7 99 1020.6 12.1 S 13.0 0.0 0.0
01:29 10.8 10.7 99 1020.6 8.3 SW 13.0 0.0 0.0
01:30 10.8 10.7 99 1020.6 12.1 NW 13.0 0.0 0.0
01:31 10.8 10.7 99 1020.7 10.7 S 13.0 0.0 0.0
01:31 10.8 10.7 99 1020.7 10.7 S 13.0 0.0 0.0
01:32 10.8 10.7 99 1020.7 11.4 SW 12.1 0.0 0.0
01:33 10.8 10.7 99 1020.7 13.0 NW 13.0 0.0 0.0
01:35 10.8 10.7 99 1020.7 11.4 S 13.6 0.0 0.0
01:36 10.8 10.7 99 1020.8 14.5 S 14.5 0.0 0.0
01:37 10.8 10.7 99 1020.8 10.7 SE 14.5 0.0 0.0
01:38 10.8 10.7 99 1020.7 9.8 S 14.5 0.0 0.0
01:39 10.8 10.7 99 1020.8 11.4 S 14.5 0.0 0.0
01:40 10.8 10.7 99 1020.6 13.6 S 14.5 0.0 0.0
01:41 10.9 10.8 99 1020.7 10.7 SW 14.5 0.0 0.0
01:41 10.9 10.8 99 1020.7 10.7 SW 14.5 0.0 0.0
01:42 10.9 10.8 99 1020.6 13.0 SW 14.5 0.0 0.0
01:43 10.9 10.8 99 1020.6 10.7 S 14.5 0.0 0.0
01:45 10.9 10.8 99 1020.4 9.8 SE 14.5 0.0 0.0
01:46 10.9 10.8 99 1020.5 12.1 S 14.5 0.0 0.0
01:47 10.9 10.8 99 1020.5 13.6 S 14.5 0.0 0.0
01:48 10.9 10.8 99 1020.4 13.6 N 14.5 0.0 0.0
01:49 10.9 10.8 99 1020.3 15.2 SW 15.2 0.0 0.0
01:50 10.9 10.8 99 1020.2 14.5 S 15.2 0.0 0.0
01:51 10.9 10.8 99 1020.1 7.6 S 15.2 0.0 0.0
01:51 10.9 10.8 99 1020.1 7.6 S 15.2 0.0 0.0
01:52 10.9 10.8 99 1020.2 13.6 S 15.2 0.0 0.0
01:53 10.9 10.8 99 1020.4 12.1 S 15.2 0.0 0.0
01:54 10.9 10.8 99 1020.3 10.7 NW 15.2 0.0 0.0
01:56 10.9 10.8 99 1020.2 13.6 S 15.2 0.0 0.0
01:57 10.9 10.8 99 1020.2 15.9 S 15.9 0.0 0.0
01:58 10.9 10.8 99 1020.2 15.2 SE 15.9 0.0 0.0
01:59 10.9 10.8 99 1020.2 12.1 S 15.9 0.0 0.0
02:00 10.9 10.8 99 1020.2 13.6 S 15.9 0.0 0.0
02:01 10.9 10.8 99 1020.4 13.6 S 15.9 0.0 0.0
02:02 10.9 10.8 99 1020.4 14.5 S 15.9 0.0 0.0
02:03 11.0 10.9 99 1020.4 14.5 S 15.9 0.0 0.0
02:03 11.0 10.9 99 1020.4 14.5 S 15.9 0.0 0.0
02:04 11.0 10.9 99 1020.4 11.4 SW 15.9 0.0 0.0
02:05 10.9 10.8 99 1020.3 10.7 S 15.9 0.0 0.0
02:07 10.9 10.8 99 1020.3 13.0 S 15.9 0.0 0.0
02:08 11.0 10.9 99 1020.4 17.4 S 17.4 0.0 0.0
02:09 10.9 10.8 99 1020.2 13.6 S 17.4 0.0 0.0
02:09 10.9 10.8 99 1020.2 13.6 S 17.4 0.0 0.0
02:10 11.0 10.9 99 1020.3 12.1 S 17.4 0.0 0.0
02:11 11.0 10.9 99 1020.2 15.2 S 17.4 0.0 0.0
02:13 11.0 10.9 99 1020.2 15.9 SW 17.4 0.0 0.0
02:14 11.0 10.9 99 1020.0 16.8 S 17.4 0.0 0.0
02:15 11.0 10.9 99 1020.0 20.6 S 20.6 0.0 0.0
02:16 11.0 10.9 99 1020.2 13.6 S 20.6 0.0 0.0
02:17 11.0 10.9 99 1020.1 15.9 SW 20.6 0.0 0.0
02:18 11.0 10.9 99 1020.2 13.6 SW 20.6 0.0 0.0
02:18 11.0 10.9 99 1020.2 13.6 SW 20.6 0.0 0.0
02:19 11.0 10.9 99 1020.1 15.2 S 20.6 0.0 0.0
02:20 11.0 10.9 99 1020.1 15.2 S 20.6 0.0 0.0
02:21 11.0 10.9 99 1020.1 15.2 NNW 20.6 0.0 0.0
02:23 11.0 10.9 99 1020.1 13.6 S 20.6 0.0 0.0
02:24 11.0 10.9 99 1020.1 12.1 SE 20.6 0.0 0.0
02:25 11.0 10.9 99 1020.1 15.9 NNE 15.9 0.0 0.0
02:26 11.0 10.9 99 1020.1 10.7 S 15.9 0.0 0.0
02:27 11.0 10.9 99 1020.1 15.2 S 15.9 0.0 0.0
02:28 11.0 10.9 99 1019.9 13.0 S 15.9 0.0 0.0
02:28 11.0 10.9 99 1019.9 13.0 S 15.9 0.0 0.0
02:29 10.9 10.8 99 1019.9 17.4 S 17.4 0.0 0.0
02:30 10.9 10.8 99 1019.9 14.5 S 17.4 0.0 0.0
02:31 10.9 10.8 99 1020.0 9.8 SW 17.4 0.0 0.0
02:33 10.9 10.8 99 1019.8 13.0 S 17.4 0.0 0.0
02:34 10.9 10.8 99 1019.8 11.4 S 17.4 0.0 0.0
02:35 11.0 10.9 99 1019.8 13.6 SW 17.4 0.0 0.0
02:36 10.9 10.8 99 1019.8 13.6 S 17.4 0.0 0.0
02:37 10.9 10.8 99 1019.7 15.2 WNW 17.4 0.0 0.0
02:38 11.0 10.9 99 1019.7 10.7 S 17.4 0.0 0.0
02:39 11.0 10.9 99 1019.8 10.7 S 17.4 0.0 0.0
02:40 11.0 10.9 99 1019.7 13.6 S 15.2 0.0 0.0
02:41 10.9 10.8 99 1019.9 15.2 S 15.2 0.0 0.0
02:43 11.0 10.9 99 1019.9 11.4 S 15.2 0.0 0.0
02:44 10.9 10.8 99 1020.0 16.8 S 16.8 0.0 0.0
02:45 11.0 10.9 99 1019.9 14.5 S 16.8 0.0 0.0
02:46 11.0 10.9 99 1019.9 11.4 S 16.8 0.0 0.0
02:47 11.0 10.9 99 1020.0 12.1 S 16.8 0.0 0.0
02:48 11.0 10.9 99 1020.2 16.8 S 16.8 0.0 0.0
02:49 11.0 10.9 99 1019.9 10.7 SW 16.8 0.0 0.0
02:49 11.0 10.9 99 1019.9 10.7 SW 16.8 0.0 0.0
02:50 11.0 10.9 99 1020.1 10.7 SW 16.8 0.0 0.0
02:51 11.0 10.9 99 1019.9 13.6 SW 16.8 0.0 0.0
02:52 11.0 10.9 99 1020.0 14.5 S 16.8 0.0 0.0
02:54 11.0 10.9 99 1020.0 13.0 S 16.8 0.0 0.0
02:55 11.0 10.9 99 1019.9 15.9 SW 16.8 0.0 0.0
02:56 11.0 10.9 99 1020.0 10.7 S 16.8 0.0 0.0
02:57 11.0 10.9 99 1020.0 13.0 SW 16.8 0.0 0.0
02:58 11.0 10.9 99 1020.0 15.9 SE 16.8 0.0 0.0
02:59 11.0 10.9 99 1020.0 15.2 SW 15.9 0.0 0.0
02:59 11.0 10.9 99 1020.0 15.2 SW 15.9 0.0 0.0
03:00 11.0 10.9 99 1020.0 15.2 SW 15.9 0.0 0.0
03:01 11.0 10.9 99 1020.1 15.2 SW 15.9 0.0 0.0
03:02 11.0 10.9 99 1019.9 14.5 SW 20.6 0.0 0.0
03:04 11.1 11.0 99 1019.9 9.8 S 20.6 0.0 0.0
03:05 11.1 11.0 99 1019.9 9.8 S 20.6 0.0 0.0
03:06 11.0 10.9 99 1020.1 17.4 S 20.6 0.0 0.0
03:06 11.0 10.9 99 1020.1 17.4 S 20.6 0.0 0.0
03:07 11.1 11.0 99 1020.1 15.9 S 20.6 0.0 0.0
03:09 11.1 11.0 99 1020.3 10.7 S 20.6 0.0 0.0
03:10 11.1 11.0 99 1019.8 14.5 S 20.6 0.0 0.0
03:11 11.1 11.0 99 1020.2 15.9 S 20.6 0.0 0.0
03:12 11.1 11.0 99 1020.0 13.6 SW 17.4 0.0 0.0
03:12 11.1 11.0 99 1020.0 13.6 SW 17.4 0.0 0.0
03:13 11.1 11.0 99 1020.1 12.1 S 17.4 0.0 0.0
03:14 11.1 11.0 99 1019.9 17.4 S 17.4 0.0 0.0
03:15 11.1 11.0 99 1019.9 13.6 S 17.4 0.0 0.0
03:17 11.1 11.0 99 1019.9 13.6 S 17.4 0.0 0.0
03:18 11.1 11.0 99 1020.0 13.0 S 17.4 0.0 0.0
03:19 11.1 11.0 99 1019.9 13.0 SW 17.4 0.0 0.0
03:20 11.1 11.0 99 1019.9 13.6 SW 17.4 0.0 0.0
03:21 11.1 11.0 99 1019.9 9.8 S 17.4 0.0 0.0
03:21 11.1 11.0 99 1019.9 9.8 S 17.4 0.0 0.0
03:22 11.1 11.0 99 1019.9 12.1 S 17.4 0.0 0.0
03:23 11.1 11.0 99 1019.7 13.0 NW 17.4 0.0 0.0
03:24 11.1 11.0 99 1019.7 14.5 S 17.4 0.0 0.0
03:26 11.1 11.0 99 1019.9 15.9 W 19.7 0.0 0.0
03:27 11.1 11.0 99 1019.9 13.0 SW 19.7 0.0 0.0
03:28 11.1 11.0 99 1019.9 11.4 SW 19.7 0.0 0.0
03:29 11.1 11.0 99 1019.7 16.8 NW 19.7 0.0 0.0
03:30 11.1 11.0 99 1019.9 15.9 S 19.7 0.0 0.0
03:30 11.1 11.0 99 1019.9 15.9 S 19.7 0.0 0.0
03:31 11.1 11.0 99 1019.9 14.5 S 19.7 0.0 0.0
03:32 11.2 11.1 99 1019.8 16.8 N 19.7 0.0 0.0
03:33 11.1 11.0 99 1020.0 15.2 SW 19.7 0.0 0.0
03:35 11.2 11.1 99 1019.9 11.4 S 19.7 0.0 0.0
03:36 11.2 11.1 99 1019.9 12.1 NW 16.8 0.0 0.0
03:37 11.2 11.1 99 1019.8 9.8 WNW 16.8 0.0 0.0
03:38 11.2 11.1 99 1019.7 11.4 SW 16.8 0.0 0.0
03:39 11.2 11.1 99 1019.9 15.2 SW 16.8 0.0 0.0
03:40 11.2 11.1 99 1019.7 10.7 S 16.8 0.0 0.0
03:40 11.2 11.1 99 1019.7 10.7 S 16.8 0.0 0.0
03:41 11.2 11.1 99 1019.7 13.6 SW 16.8 0.0 0.0
03:42 11.2 11.1 99 1019.7 12.1 WNW 16.8 0.0 0.0
03:43 11.2 11.1 99 1019.9 16.8 S 16.8 0.0 0.0
03:44 11.2 11.1 99 1019.8 11.4 S 16.8 0.0 0.0
03:46 11.2 11.1 99 1019.8 13.6 WSW 16.8 0.0 0.0
03:47 11.2 11.1 99 1019.7 13.0 SW 16.8 0.0 0.0
03:48 11.2 11.1 99 1019.7 13.6 S 16.8 0.0 0.0
03:49 11.2 11.1 99 1019.7 12.1 SW 16.8 0.0 0.0
03:49 11.2 11.1 99 1019.7 12.1 SW 16.8 0.0 0.0
03:50 11.2 11.1 99 1019.6 12.1 W 16.8 0.0 0.0
03:51 11.2 11.1 99 1019.8 13.6 S 16.8 0.0 0.0
03:52 11.2 11.1 99 1019.5 10.7 S 16.8 0.0 0.0
03:53 11.2 11.1 99 1019.7 9.8 S 16.8 0.0 0.0
03:55 11.2 11.1 99 1019.5 15.2 S 15.2 0.0 0.0
03:56 11.2 11.1 99 1019.6 13.6 S 15.2 0.0 0.0
03:57 11.2 11.1 99 1019.6 11.4 S 15.2 0.0 0.0
03:58 11.2 11.1 99 1019.7 13.0 S 15.2 0.0 0.0
03:59 11.2 11.1 99 1019.6 11.4 SW 15.2 0.0 0.0
04:00 11.2 11.1 99 1019.7 14.5 S 15.2 0.0 0.0
04:00 11.2 11.1 99 1019.7 14.5 S 15.2 0.0 0.0
04:01 11.2 11.1 99 1019.8 14.5 S 15.2 0.0 0.0
04:02 11.2 11.1 99 1019.6 14.5 S 15.2 0.0 0.0
04:03 11.2 11.1 99 1019.6 14.5 S 15.2 0.0 0.0
04:05 11.2 11.1 99 1019.5 14.5 S 15.2 0.0 0.0
04:06 11.2 11.1 99 1019.8 12.1 W 14.5 0.0 0.0
04:06 11.2 11.1 99 1019.8 12.1 W 14.5 0.0 0.0
04:07 11.2 11.1 99 1019.8 15.2 SW 15.2 0.0 0.0
04:09 11.2 11.1 99 1019.6 15.9 S 15.9 0.0 0.0
04:10 11.2 11.1 99 1019.6 12.1 W 15.9 0.0 0.0
04:11 11.2 11.1 99 1019.6 16.8 SW 16.8 0.0 0.0
04:11 11.2 11.1 99 1019.6 16.8 SW 16.8 0.0 0.0
04:12 11.2 11.1 99 1019.6 15.9 SW 16.8 0.0 0.0
04:13 11.2 11.1 99 1019.9 16.8 S 16.8 0.0 0.0
04:14 11.2 11.1 99 1019.7 15.2 SW 16.8 0.0 0.0
04:16 11.3 11.2 99 1019.6 15.2 SW 16.8 0.0 0.0
04:17 11.3 11.2 99 1019.7 9.8 SW 16.8 0.0 0.0
04:18 11.3 11.2 99 1019.6 11.4 WNW 16.8 0.0 0.0
04:19 11.3 11.2 99 1019.7 9.8 NW 16.8 0.0 0.0
04:20 11.3 11.2 99 1019.4 14.5 SW 16.8 0.0 0.0
04:20 11.3 11.2 99 1019.4 14.5 SW 16.8 0.0 0.0
04:21 11.3 11.2 99 1019.6 13.6 S 16.8 0.0 0.0
04:22 11.3 11.2 99 1019.6 10.7 SW 16.8 0.0 0.0
04:23 11.3 11.2 99 1019.6 16.8 S 16.8 0.0 0.0
04:25 11.3 11.2 99 1019.6 15.2 SW 16.8 0.0 0.0
04:26 11.3 11.2 99 1019.7 13.6 SE 16.8 0.0 0.0
04:27 11.3 11.2 99 1019.6 13.0 SE 16.8 0.0 0.0
04:28 11.3 11.2 99 1019.6 15.9 SW 16.8 0.0 0.0
04:29 11.3 11.2 99 1019.5 12.1 S 16.8 0.0 0.0
04:30 11.3 11.2 99 1019.3 14.5 SW 16.8 0.0 0.0
04:30 11.3 11.2 99 1019.3 14.5 SW 16.8 0.0 0.0
04:31 11.3 11.2 99 1019.4 13.6 SW 16.8 0.0 0.0
04:32 11.3 11.2 99 1019.3 10.7 SW 16.8 0.0 0.0
04:34 11.3 11.2 99 1019.4 10.7 SW 16.8 0.0 0.0
04:35 11.3 11.2 99 1019.3 17.4 SW 17.4 0.0 0.0
04:36 11.3 11.2 99 1019.4 17.4 S 17.4 0.0 0.0
04:37 11.3 11.2 99 1019.3 12.1 S 17.4 0.0 0.0
04:38 11.3 11.2 99 1019.4 14.5 NNW 17.4 0.0 0.0
04:39 11.3 11.2 99 1019.3 20.6 S 20.6 0.0 0.0
04:39 11.3 11.2 99 1019.3 20.6 S 20.6 0.0 0.0
04:40 11.3 11.2 99 1019.3 14.5 S 20.6 0.0 0.0
04:41 11.3 11.2 99 1019.4 13.0 S 20.6 0.0 0.0
04:42 11.3 11.2 99 1019.2 13.0 S 20.6 0.0 0.0
04:44 11.3 11.2 99 1019.3 15.2 S 20.6 0.0 0.0
04:45 11.3 11.2 99 1019.3 13.6 SW 20.6 0.0 0.0
04:46 11.3 11.2 99 1019.2 16.8 S 20.6 0.0 0.0
04:47 11.3 11.2 99 1019.2 13.6 SW 20.6 0.0 0.0
04:48 11.3 11.2 99 1019.2 13.0 S 20.6 0.0 0.0
04:49 11.3 11.2 99 1019.2 16.8 SW 20.6 0.0 0.0
04:49 11.3 11.2 99 1019.2 16.8 SW 20.6 0.0 0.0
04:50 11.3 11.2 99 1019.2 15.9 S 20.6 0.0 0.0
04:51 11.3 11.2 99 1019.1 14.5 S 20.6 0.0 0.0
04:52 11.3 11.2 99 1019.3 13.6 NNW 20.6 0.0 0.0
04:54 11.3 11.2 99 1019.3 11.4 S 20.6 0.0 0.0
04:55 11.3 11.2 99 1019.2 11.4 S 20.6 0.0 0.0
04:56 11.3 11.2 99 1019.3 9.8 S 20.6 0.0 0.0
04:57 11.3 11.2 99 1019.1 14.5 W 20.6 0.0 0.0
04:57 11.3 11.2 99 1019.1 14.5 W 20.6 0.0 0.0
04:58 11.3 11.2 99 1019.3 12.1 S 20.6 0.0 0.0
04:59 11.3 11.2 99 1019.2 13.0 S 20.6 0.0 0.0
05:00 11.3 11.2 99 1019.2 13.0 S 15.9 0.0 0.0
05:02 11.3 11.2 99 1019.2 13.0 S 15.9 0.0 0.0
05:03 11.3 11.2 99 1019.2 13.0 S 15.9 0.0 0.0
05:04 11.3 11.2 99 1019.2 13.0 S 15.9 0.0 0.0
05:05 11.4 11.3 99 1019.2 13.6 SW 15.9 0.0 0.0
05:05 11.4 11.3 99 1019.2 13.6 SW 15.9 0.0 0.0
05:07 11.4 11.3 99 1019.2 13.0 S 15.9 0.0 0.0
05:07 11.4 11.3 99 1019.2 13.0 S 15.9 0.0 0.0
05:08 11.4 11.3 99 1019.2 16.8 S 16.8 0.0 0.0
05:10 11.4 11.3 99 1019.2 8.3 S 16.8 0.0 0.0
05:11 11.4 11.3 99 1019.2 13.6 SW 16.8 0.0 0.0
05:12 11.4 11.3 99 1019.1 16.8 S 16.8 0.0 0.0
05:13 11.4 11.3 99 1019.2 15.2 N 16.8 0.0 0.0
05:14 11.4 11.3 99 1019.3 12.1 S 16.8 0.0 0.0
05:14 11.4 11.3 99 1019.3 12.1 S 16.8 0.0 0.0
05:15 11.4 11.3 99 1019.2 15.9 S 16.8 0.0 0.0
05:16 11.4 11.3 99 1019.2 14.5 SW 16.8 0.0 0.0
05:17 11.4 11.3 99 1019.0 10.7 S 16.8 0.0 0.0
05:19 11.4 11.3 99 1019.2 13.6 S 16.8 0.0 0.0
05:20 11.4 11.3 99 1019.1 14.5 S 16.8 0.0 0.0
05:21 11.4 11.3 99 1019.1 13.6 S 16.8 0.0 0.0
05:22 11.4 11.3 99 1019.1 17.4 S 17.4 0.0 0.0
05:23 11.4 11.3 99 1019.1 13.6 W 17.4 0.0 0.0
05:24 11.5 11.4 99 1019.2 13.6 S 17.4 0.0 0.0
05:25 11.5 11.4 99 1019.1 9.2 SW 17.4 0.0 0.0
05:25 11.5 11.4 99 1019.1 9.2 SW 17.4 0.0 0.0
05:26 11.5 11.4 99 1019.1 10.7 SW 17.4 0.0 0.0
05:27 11.5 11.4 99 1019.3 18.3 SW 18.3 0.0 0.0
05:28 11.4 11.3 99 1019.1 15.9 SW 18.3 0.0 0.0
05:30 11.5 11.4 99 1019.0 14.5 S 18.3 0.0 0.0
05:31 11.5 11.4 99 1019.2 15.2 SE 18.3 0.0 0.0
05:32 11.6 11.5 99 1019.1 15.2 SW 18.3 0.0 0.0
05:33 11.5 11.4 99 1019.1 11.4 SW 18.3 0.0 0.0
05:34 11.5 11.4 99 1019.0 14.5 S 18.3 0.0 0.0
05:35 11.5 11.4 99 1019.0 10.7 SW 18.3 0.0 0.0
05:35 11.5 11.4 99 1019.0 10.7 SW 18.3 0.0 0.0
05:36 11.5 11.4 99 1019.2 13.6 S 18.3 0.0 0.0
05:37 11.5 11.4 99 1019.1 18.3 S 18.3 0.0 0.0
05:38 11.5 11.4 99 1019.0 17.4 SW 18.3 0.0 0.0
05:39 11.5 11.4 99 1019.1 16.8 SW 18.3 0.0 0.0
05:41 11.5 11.4 99 1019.0 13.0 S 18.3 0.0 0.0
05:42 11.5 11.4 99 1019.0 11.4 S 18.3 0.0 0.0
05:43 11.5 11.4 99 1018.9 13.0 S 18.3 0.0 0.0
05:44 11.5 11.4 99 1019.0 12.1 S 18.3 0.0 0.0
05:45 11.5 11.4 99 1018.8 11.4 S 18.3 0.0 0.0
05:45 11.5 11.4 99 1018.8 11.4 S 18.3 0.0 0.0
05:46 11.5 11.4 99 1018.9 14.5 S 18.3 0.0 0.0
05:47 11.5 11.4 99 1018.8 14.5 SW 18.3 0.0 0.0
05:48 11.5 11.4 99 1018.9 17.4 S 17.4 0.0 0.0
05:50 11.6 11.5 99 1018.7 16.8 S 17.4 0.0 0.0
05:51 11.5 11.4 99 1018.9 16.8 SE 17.4 0.0 0.0
05:52 11.5 11.4 99 1018.7 14.5 S 17.4 0.0 0.0
05:53 11.5 11.4 99 1018.8 14.5 S 17.4 0.0 0.0
05:54 11.5 11.4 99 1018.8 13.0 SW 17.4 0.0 0.0
05:55 11.5 11.4 99 1018.8 13.0 S 18.3 0.0 0.0
05:55 11.5 11.4 99 1018.8 13.0 S 18.3 0.0 0.0
05:56 11.5 11.4 99 1018.8 15.9 S 18.3 0.0 0.0
05:57 11.5 11.4 99 1018.8 14.5 S 18.3 0.0 0.0
05:58 11.5 11.4 99 1018.7 15.2 S 18.3 0.0 0.0
06:00 11.5 11.4 99 1018.7 12.1 S 18.3 0.0 0.0
06:01 11.5 11.4 99 1018.6 12.1 S 18.3 0.0 0.0
06:02 11.5 11.4 99 1018.5 15.9 S 18.3 0.0 0.0
06:03 11.5 11.4 99 1018.7 15.2 N 18.3 0.0 0.0
06:04 11.5 11.4 99 1018.7 11.4 S 15.9 0.0 0.0
06:04 11.5 11.4 99 1018.7 11.4 S 15.9 0.0 0.0
06:05 11.5 11.4 99 1018.8 13.0 S 15.9 0.0 0.0
06:07 11.5 11.4 99 1018.7 18.3 S 18.3 0.0 0.0
06:07 11.5 11.4 99 1018.7 18.3 S 18.3 0.0 0.0
06:08 11.5 11.4 99 1018.7 15.9 S 19.0 0.0 0.0
06:10 11.5 11.4 99 1018.6 12.1 S 19.0 0.0 0.0
06:10 11.5 11.4 99 1018.6 12.1 S 19.0 0.0 0.0
06:11 11.5 11.4 99 1018.8 12.1 S 19.0 0.0 0.0
06:13 11.5 11.4 99 1018.7 13.0 S 19.0 0.0 0.0
06:14 11.5 11.4 99 1018.7 13.6 S 19.0 0.0 0.0
06:15 11.5 11.4 99 1018.6 14.5 S 19.0 0.0 0.0
06:16 11.5 11.4 99 1018.6 10.7 S 19.0 0.0 0.0
06:16 11.5 11.4 99 1018.6 10.7 S 19.0 0.0 0.0
06:17 11.4 11.3 99 1018.7 10.7 S 16.8 0.0 0.0
06:18 11.5 11.4 99 1018.7 12.1 S 16.8 0.0 0.0
06:19 11.5 11.4 99 1018.7 10.7 SW 16.8 0.0 0.0
06:21 11.5 11.4 99 1018.8 13.6 S 16.8 0.0 0.0
06:22 11.5 11.4 99 1018.7 13.6 S 16.8 0.0 0.0
06:23 11.5 11.4 99 1018.7 12.1 S 16.8 0.0 0.0
06:24 11.5 11.4 99 1018.7 12.1 N 16.8 0.0 0.0
06:24 11.5 11.4 99 1018.7 12.1 N 16.8 0.0 0.0
06:25 11.5 11.4 99 1018.6 13.6 S 15.2 0.0 0.0
06:26 11.5 11.4 99 1018.7 9.8 S 15.2 0.0 0.0
06:27 11.5 11.4 99 1018.6 14.5 S 14.5 0.0 0.0
06:29 11.5 11.4 99 1018.7 13.6 WNW 14.5 0.0 0.0
06:30 11.5 11.4 99 1018.6 13.6 WNW 14.5 0.0 0.0
06:31 11.5 11.4 99 1018.7 16.8 NW 16.8 0.0 0.0
06:32 11.5 11.4 99 1018.7 13.6 S 16.8 0.0 0.0
06:33 11.5 11.4 99 1018.7 14.5 S 16.8 0.0 0.0
06:34 11.5 11.4 99 1018.7 13.0 S 16.8 0.0 0.0
06:35 11.5 11.4 99 1018.7 12.1 S 16.8 0.0 0.0
06:35 11.5 11.4 99 1018.7 12.1 S 16.8 0.0 0.0
06:36 11.5 11.4 99 1018.7 14.5 NW 16.8 0.0 0.0
06:37 11.5 11.4 99 1018.6 15.9 WNW 16.8 0.0 0.0
06:38 11.5 11.4 99 1018.7 17.4 SW 17.4 0.0 0.0
06:39 11.5 11.4 99 1018.6 16.8 S 17.4 0.0 0.0
06:40 11.5 11.4 99 1018.7 13.6 S 17.4 0.0 0.0
06:41 11.5 11.4 99 1018.5 12.1 S 17.4 0.0 0.0
06:43 11.5 11.4 99 1018.5 10.7 S 17.4 0.0 0.0
06:44 11.5 11.4 99 1018.6 12.1 SW 17.4 0.0 0.0
06:45 11.5 11.4 99 1018.6 15.2 SW 17.4 0.0 0.0
06:46 11.5 11.4 99 1018.7 9.8 S 17.4 0.0 0.0
06:46 11.5 11.4 99 1018.7 9.8 S 17.4 0.0 0.0
06:47 11.6 11.5 99 1018.7 13.6 SW 17.4 0.0 0.0
06:48 11.5 11.4 99 1018.7 12.1 S 17.4 0.0 0.0
06:49 11.5 11.4 99 1018.9 16.8 S 16.8 0.0 0.0
06:50 11.5 11.4 99 1018.7 12.1 S 16.8 0.0 0.0
06:52 11.5 11.4 99 1018.6 15.2 SW 16.8 0.0 0.0
06:53 11.5 11.4 99 1018.6 14.5 SW 16.8 0.0 0.0
06:54 11.5 11.4 99 1018.8 14.5 S 16.8 0.0 0.0
06:55 11.6 11.5 99 1018.7 13.6 S 16.8 0.0 0.0
06:56 11.5 11.4 99 1018.6 16.8 S 16.8 0.0 0.0
06:57 11.5 11.4 99 1018.7 13.6 S 16.8 0.0 0.0
06:57 11.5 11.4 99 1018.7 13.6 S 16.8 0.0 0.0
06:57 11.5 11.4 99 1018.7 13.6 S 16.8 0.0 0.0
06:57 11.5 11.4 99 1018.7 13.6 S 16.8 0.0 0.0
07:00 11.5 11.4 99 1018.6 9.8 S 18.3 0.0 0.0
07:01 11.5 11.4 99 1018.7 15.2 SW 18.3 0.0 0.0
07:02 11.5 11.4 99 1018.7 9.2 SW 18.3 0.0 0.0
07:04 11.5 11.4 99 1018.7 13.0 SW 18.3 0.0 0.0
07:05 11.4 11.3 99 1018.6 13.0 S 18.3 0.0 0.0
07:06 11.4 11.3 99 1018.8 11.4 S 18.3 0.0 0.0
07:06 11.4 11.3 99 1018.8 11.4 S 18.3 0.0 0.0
07:07 11.4 11.3 99 1018.7 9.8 SW 18.3 0.0 0.0
07:09 11.4 11.3 99 1018.7 15.9 S 15.9 0.0 0.0
07:10 11.4 11.3 99 1018.8 14.5 S 15.9 0.0 0.0
07:10 11.4 11.3 99 1018.8 14.5 S 15.9 0.0 0.0
07:11 11.4 11.3 99 1018.8 12.1 S 15.9 0.0 0.0
07:13 11.4 11.3 99 1018.8 12.1 NW 15.9 0.0 0.0
07:14 11.4 11.3 99 1018.8 10.7 SW 15.9 0.0 0.0
07:15 11.5 11.4 99 1018.9 14.5 SW 15.9 0.0 0.0
07:16 11.4 11.3 99 1018.9 11.4 S 15.9 0.0 0.0
07:17 11.5 11.4 99 1018.9 13.6 S 15.9 0.0 0.0
07:18 11.5 11.4 99 1018.9 13.0 S 15.9 0.0 0.0
07:19 11.5 11.4 99 1018.9 11.4 SW 15.9 0.0 0.0
07:20 11.5 11.4 99 1019.1 13.6 SW 14.5 0.0 0.0
07:21 11.5 11.4 99 1019.0 15.9 S 15.9 0.0 0.0
07:22 11.5 11.4 99 1019.1 10.7 S 15.9 0.0 0.0
07:23 11.5 11.4 99 1019.1 10.7 S 15.9 0.0 0.0
07:24 11.5 11.4 99 1019.0 13.6 S 15.9 0.0 0.0
07:25 11.5 11.4 99 1019.0 9.2 SW 15.9 0.0 0.0
07:26 11.5 11.4 99 1019.1 10.7 S 15.9 0.0 0.0
07:27 11.5 11.4 99 1019.0 10.7 S 15.9 0.0 0.0
07:28 11.5 11.4 99 1019.0 11.4 S 15.9 0.0 0.0
07:29 11.5 11.4 99 1019.0 8.3 S 15.9 0.0 0.0
07:30 11.5 11.4 99 1019.0 12.1 S 15.9 0.0 0.0
07:31 11.5 11.4 99 1019.2 15.2 S 15.2 0.0 0.0
07:32 11.5 11.4 99 1019.1 15.2 S 15.2 0.0 0.0
07:34 11.5 11.4 99 1019.0 16.8 S 19.7 0.0 0.0
07:34 11.5 11.4 99 1019.0 16.8 S 19.7 0.0 0.0
07:35 11.6 11.5 99 1019.1 14.5 NW 19.7 0.0 0.0
07:36 11.6 11.5 99 1019.1 13.0 SW 19.7 0.0 0.0
07:37 11.5 11.4 99 1019.0 11.4 SE 19.7 0.0 0.0
07:38 11.6 11.5 99 1019.1 10.7 S 19.7 0.0 0.0
07:39 11.6 11.5 99 1019.0 12.1 S 19.7 0.0 0.0
07:40 11.6 11.5 99 1019.0 9.8 S 19.7 0.0 0.0
07:41 11.6 11.5 99 1018.9 9.8 S 19.7 0.0 0.0
07:42 11.5 11.4 99 1018.9 15.2 S 19.7 0.0 0.0
07:43 11.6 11.5 99 1018.8 14.5 S 16.8 0.0 0.0
07:44 11.5 11.4 99 1018.8 13.6 S 16.8 0.0 0.0
07:45 11.5 11.4 99 1018.9 12.1 SW 15.2 0.0 0.0
07:46 11.6 11.5 99 1019.0 12.1 S 15.2 0.0 0.0
07:47 11.5 11.4 99 1018.8 12.1 S 15.2 0.0 0.0
07:48 11.6 11.5 99 1018.7 11.4 S 15.2 0.0 0.0
07:49 11.5 11.4 99 1018.8 13.0 SW 15.2 0.0 0.0
07:50 11.6 11.5 99 1018.8 15.2 S 15.2 0.0 0.0
07:51 11.5 11.4 99 1018.9 9.2 SW 15.2 0.0 0.0
07:52 11.6 11.5 99 1018.9 9.8 S 15.2 0.0 0.0
07:54 11.6 11.5 99 1018.9 13.6 S 15.2 0.0 0.0
07:55 11.6 11.5 99 1018.9 9.8 S 15.2 0.0 0.0
07:56 11.5 11.4 99 1018.9 9.2 S 15.2 0.0 0.0
07:57 11.6 11.5 99 1018.9 13.0 SW 15.2 0.0 0.0
07:58 11.6 11.5 99 1019.0 13.0 SW 15.2 0.0 0.0
07:59 11.6 11.5 99 1018.7 10.7 SW 15.2 0.0 0.0
08:00 11.6 11.5 99 1018.7 10.7 SW 15.2 0.0 0.0
08:01 11.6 11.5 99 1018.7 10.7 SW 14.5 0.0 0.0
08:02 11.6 11.5 99 1018.7 15.2 SW 15.2 0.0 0.0
08:03 11.6 11.5 99 1019.1 14.5 S 15.2 0.0 0.0
08:04 11.6 11.5 99 1018.8 9.2 SW 15.2 0.0 0.0
08:05 11.6 11.5 99 1018.8 12.1 S 15.2 0.0 0.0
08:06 11.6 11.5 99 1018.8 11.4 SW 15.2 0.0 0.0
08:06 11.6 11.5 99 1018.8 11.4 SW 15.2 0.0 0.0
08:07 11.6 11.5 99 1018.9 12.1 S 15.2 0.0 0.0
08:09 11.6 11.5 99 1018.8 11.4 S 15.2 0.0 0.0
08:09 11.6 11.5 99 1018.8 11.4 S 15.2 0.0 0.0
08:10 11.6 11.5 99 1018.8 17.4 S 17.4 0.0 0.0
08:12 11.6 11.5 99 1018.9 14.5 S 17.4 0.0 0.0
08:13 11.6 11.5 99 1018.7 14.5 S 17.4 0.0 0.0
08:14 11.6 11.5 99 1018.9 11.4 S 17.4 0.0 0.0
08:15 11.6 11.5 99 1018.8 10.7 S 17.4 0.0 0.0
08:16 11.6 11.5 99 1018.8 10.7 S 17.4 0.0 0.0
08:17 11.6 11.5 99 1018.9 10.7 SW 17.4 0.0 0.0
08:18 11.6 11.5 99 1018.8 11.4 S 17.4 0.0 0.0
08:19 11.6 11.5 99 1018.8 8.3 S 17.4 0.0 0.0
08:20 11.6 11.5 99 1018.7 10.7 S 17.4 0.0 0.0
08:21 11.6 11.5 99 1018.7 16.8 SW 16.8 0.0 0.0
08:22 11.6 11.5 99 1018.6 13.0 SW 16.8 0.0 0.0
08:23 11.6 11.5 99 1018.7 13.0 SW 16.8 0.0 0.0
08:24 11.6 11.5 99 1018.6 13.0 SW 16.8 0.0 0.0
08:25 11.7 11.6 99 1018.7 9.8 S 16.8 0.0 0.0
08:25 11.7 11.6 99 1018.7 9.8 S 16.8 0.0 0.0
08:27 11.6 11.5 99 1018.7 15.2 W 16.8 0.0 0.0
08:27 11.6 11.5 99 1018.7 15.2 W 16.8 0.0 0.0
08:28 11.6 11.5 99 1018.6 13.0 S 16.8 0.0 0.0
08:29 11.7 11.6 99 1018.7 10.7 N 16.8 0.0 0.0
08:30 11.7 11.6 99 1018.7 10.7 S 16.8 0.0 0.0
08:31 11.7 11.6 99 1018.8 13.6 S 16.8 0.0 0.0
08:32 11.7 11.6 99 1018.7 10.7 SE 15.2 0.0 0.0
08:33 11.7 11.6 99 1018.6 14.5 S 15.2 0.0 0.0
08:34 11.7 11.6 99 1018.7 13.0 S 15.2 0.0 0.0
08:35 11.6 11.5 99 1018.7 11.4 SW 15.2 0.0 0.0
08:36 11.7 11.6 99 1018.8 12.1 S 15.2 0.0 0.0
08:37 11.7 11.6 99 1018.7 10.7 S 14.5 0.0 0.0
08:38 11.7 11.6 99 1018.6 13.6 S 14.5 0.0 0.0
08:39 11.7 11.6 99 1018.7 13.6 S 14.5 0.0 0.0
08:40 11.7 11.6 99 1018.6 8.3 S 14.5 0.0 0.0
08:41 11.7 11.6 99 1018.8 13.0 S 14.5 0.0 0.0
08:42 11.7 11.6 99 1018.6 13.6 S 14.5 0.0 0.0
08:43 11.7 11.6 99 1018.6 13.6 S 14.5 0.0 0.0
08:44 11.7 11.6 99 1018.7 14.5 SW 14.5 0.0 0.0
08:46 11.7 11.6 99 1018.7 9.8 SW 14.5 0.0 0.0
08:47 11.7 11.6 99 1018.5 13.0 S 14.5 0.0 0.0
08:48 11.7 11.6 99 1018.5 10.7 S 14.5 0.0 0.0
08:49 11.7 11.6 99 1018.6 16.8 S 16.8 0.0 0.0
08:50 11.7 11.6 99 1018.6 13.6 S 16.8 0.0 0.0
08:51 11.7 11.6 99 1018.6 13.6 SW 17.4 0.0 0.0
08:52 11.7 11.6 99 1018.6 10.7 SW 17.4 0.0 0.0
08:53 11.7 11.6 99 1018.7 11.4 S 17.4 0.0 0.0
08:54 11.7 11.6 99 1018.6 17.4 S 17.4 0.0 0.0
08:55 11.8 11.7 99 1018.6 18.3 S 18.3 0.0 0.0
08:56 11.8 11.7 99 1018.7 16.8 SW 18.3 0.0 0.0
08:57 11.8 11.7 99 1018.7 13.0 SW 18.3 0.0 0.0
08:58 11.8 11.7 99 1018.7 13.0 SW 18.3 0.0 0.0
08:59 11.8 11.7 99 1018.6 11.4 S 18.3 0.0 0.0
09:00 11.8 11.7 99 1018.5 11.4 S 18.3 0.0 0.0
09:01 11.8 11.7 99 1018.6 11.4 S 18.3 0.0 0.0
09:02 11.8 11.7 99 1018.7 11.4 S 18.3 0.0 0.0
09:03 11.8 11.7 99 1018.7 11.4 S 18.3 0.0 0.0
09:04 11.8 11.7 99 1018.6 11.4 S 18.3 0.0 0.0
09:05 11.8 11.7 99 1018.7 16.8 S 16.8 0.0 0.0
09:05 11.8 11.7 99 1018.7 16.8 S 16.8 0.0 0.0
09:06 11.8 11.7 99 1018.7 10.7 S 16.8 0.0 0.0
09:08 11.8 11.7 99 1018.7 13.0 S 16.8 0.0 0.0
09:08 11.8 11.7 99 1018.7 13.0 S 16.8 0.0 0.0
09:09 11.8 11.7 99 1018.7 13.6 S 16.8 0.0 0.0
09:11 11.8 11.7 99 1018.7 14.5 S 16.8 0.0 0.0
09:11 11.8 11.7 99 1018.7 14.5 S 16.8 0.0 0.0
09:12 11.8 11.7 99 1018.7 15.9 WNW 16.8 0.0 0.0
09:13 11.9 11.8 99 1018.7 16.8 WNW 16.8 0.0 0.0
09:14 11.9 11.8 99 1018.8 14.5 S 16.8 0.0 0.0
09:15 11.9 11.8 99 1018.7 14.5 SW 16.8 0.0 0.0
09:16 11.9 11.8 99 1018.8 15.2 SW 16.8 0.0 0.0
09:17 11.9 11.8 99 1018.7 12.1 S 16.8 0.0 0.0
09:19 11.9 11.8 99 1018.7 13.0 S 16.8 0.0 0.0
09:20 11.9 11.8 99 1018.6 14.5 S 16.8 0.0 0.0
09:21 12.0 11.9 99 1018.7 13.6 S 16.8 0.0 0.0
09:22 12.0 11.9 99 1018.8 18.3 W 18.3 0.0 0.0
09:23 12.0 11.9 99 1018.7 17.4 S 18.3 0.0 0.0
09:24 11.9 11.8 99 1018.7 19.7 S 19.7 0.0 0.0
09:25 12.0 11.9 99 1018.6 14.5 S 19.7 0.0 0.0
09:26 12.0 11.9 99 1018.7 15.2 S 19.7 0.0 0.0
09:27 12.0 11.9 99 1018.5 15.2 S 19.7 0.0 0.0
09:28 12.0 11.9 99 1018.6 11.4 SW 19.7 0.0 0.0
09:29 12.0 11.9 99 1018.6 11.4 SW 19.7 0.0 0.0
09:30 12.0 11.9 99 1018.5 15.2 S 19.7 0.0 0.0
09:31 12.0 11.9 99 1018.5 12.1 S 19.7 0.0 0.0
09:32 12.0 11.9 99 1018.4 15.9 S 19.7 0.0 0.0
09:33 12.0 11.9 99 1018.6 14.5 SW 19.7 0.0 0.0
09:34 12.0 11.9 99 1018.5 15.9 SW 19.7 0.0 0.0
09:35 12.1 12.0 99 1018.7 15.2 SW 15.9 0.0 0.0
09:36 12.1 12.0 99 1018.5 16.8 NW 16.8 0.0 0.0
09:37 12.1 12.0 99 1018.7 20.6 SW 20.6 0.0 0.0
09:38 12.1 12.0 99 1018.8 19.7 S 20.6 0.0 0.0
09:39 12.1 12.0 99 1018.6 13.6 S 20.6 0.0 0.0
09:40 12.1 12.0 99 1018.7 13.6 SW 20.6 0.0 0.0
09:41 12.1 12.0 99 1018.5 15.9 NW 20.6 0.0 0.0
09:41 12.1 12.0 99 1018.5 15.9 NW 20.6 0.0 0.0
09:42 12.1 12.0 99 1018.6 15.9 SW 20.6 0.0 0.0
09:43 12.1 12.0 99 1018.6 13.6 NW 20.6 0.0 0.0
09:44 12.1 12.0 99 1018.7 14.5 S 20.6 0.0 0.0
09:45 12.1 12.0 99 1018.5 16.8 S 20.6 0.0 0.0
09:46 12.1 12.0 99 1018.6 20.6 S 20.6 0.0 0.0
09:47 12.1 12.0 99 1018.6 15.2 SW 20.6 0.0 0.0
09:48 12.1 12.0 99 1018.4 13.0 S 20.6 0.0 0.0
09:49 12.2 12.1 99 1018.6 18.3 S 20.6 0.0 0.0
09:50 12.1 12.0 99 1018.5 13.0 SW 20.6 0.0 0.0
09:51 12.1 12.0 99 1018.6 13.6 SE 20.6 0.0 0.0
09:52 12.2 12.1 99 1018.5 12.1 S 20.6 0.0 0.0
09:53 12.2 12.1 99 1018.7 13.0 SW 20.6 0.0 0.0
09:54 12.2 12.1 99 1018.5 13.6 S 20.6 0.0 0.0
09:55 12.2 12.1 99 1018.5 9.8 SW 20.6 0.0 0.0
09:56 12.2 12.1 99 1018.5 11.4 SW 20.6 0.0 0.0
09:57 12.2 12.1 99 1018.4 14.5 SW 18.3 0.0 0.0
09:58 12.2 12.1 99 1018.4 14.5 S 18.3 0.0 0.0
10:00 12.2 12.1 99 1018.6 15.2 SW 18.3 0.0 0.0
10:01 12.2 12.1 99 1018.5 15.2 SW 18.3 0.0 0.0
10:02 12.2 12.1 99 1018.6 16.8 SW 18.3 0.0 0.0
10:03 12.3 12.2 99 1018.4 15.2 SW 18.3 0.0 0.0
10:04 12.3 12.2 99 1018.7 15.2 S 18.3 0.0 0.0
10:05 12.3 12.2 99 1018.6 15.2 SW 18.3 0.0 0.0
10:05 12.3 12.2 99 1018.6 15.2 SW 18.3 0.0 0.0
10:06 12.3 12.2 99 1018.6 16.8 SW 18.3 0.0 0.0
10:08 12.3 12.2 99 1018.7 15.9 SW 16.8 0.0 0.0
10:08 12.3 12.2 99 1018.7 15.9 SW 16.8 0.0 0.0
10:10 12.3 12.2 99 1018.5 13.6 S 16.8 0.0 0.0
10:10 12.3 12.2 99 1018.5 13.6 S 16.8 0.0 0.0
10:11 12.3 12.2 99 1018.7 13.0 SW 16.8 0.0 0.0
10:13 12.3 12.2 99 1018.7 12.1 S 16.8 0.0 0.0
10:14 12.3 12.2 99 1018.6 16.8 SW 16.8 0.0 0.0
10:15 12.3 12.2 99 1018.7 18.3 S 18.3 0.0 0.0
10:16 12.3 12.2 99 1018.6 14.5 SW 18.3 0.0 0.0
10:17 12.3 12.2 99 1018.7 16.8 S 18.3 0.0 0.0
10:18 12.3 12.2 99 1018.7 19.0 SW 19.0 0.0 0.0
10:19 12.4 12.3 99 1018.5 16.8 S 19.0 0.0 0.0
10:20 12.3 12.2 99 1018.6 16.8 S 19.0 0.0 0.0
10:21 12.3 12.2 99 1018.6 11.4 S 19.0 0.0 0.0
10:22 12.4 12.3 99 1018.6 12.1 S 19.0 0.0 0.0
10:23 12.4 12.3 99 1018.7 15.2 S 19.0 0.0 0.0
10:24 12.4 12.3 99 1018.9 16.8 SE 19.0 0.0 0.0
10:25 12.4 12.3 99 1018.7 13.6 W 19.0 0.0 0.0
10:26 12.4 12.3 99 1018.8 15.9 S 19.0 0.0 0.0
10:26 12.4 12.3 99 1018.8 15.9 S 19.0 0.0 0.0
10:27 12.4 12.3 99 1018.7 17.4 S 19.0 0.0 0.0
10:28 12.4 12.3 99 1018.5 15.9 SW 19.0 0.0 0.0
10:29 12.4 12.3 99 1018.7 18.3 S 19.0 0.0 0.0
10:30 12.4 12.3 99 1018.6 15.9 NW 19.0 0.0 0.0
10:31 12.4 12.3 99 1018.7 14.5 S 19.0 0.0 0.0
10:32 12.4 12.3 99 1018.5 9.2 SW 19.0 0.0 0.0
10:33 12.4 12.3 99 1018.9 17.4 S 19.0 0.0 0.0
10:34 12.4 12.3 99 1018.6 21.3 S 21.3 0.0 0.0
10:36 12.4 12.3 99 1018.7 11.4 S 21.3 0.0 0.0
10:37 12.4 12.3 99 1018.7 11.4 SW 21.3 0.0 0.0
10:38 12.4 12.3 99 1018.4 19.0 SW 21.3 0.0 0.0
10:39 12.5 12.4 99 1018.6 14.5 S 21.3 0.0 0.0
10:40 12.5 12.4 99 1018.7 13.6 N 21.3 0.0 0.0
10:41 12.5 12.4 99 1018.7 12.1 W 21.3 0.0 0.0
10:41 12.5 12.4 99 1018.7 12.1 W 21.3 0.0 0.0
10:43 12.5 12.4 99 1018.6 17.4 NW 21.3 0.0 0.0
10:43 12.5 12.4 99 1018.6 17.4 NW 21.3 0.0 0.0
10:45 12.5 12.4 99 1018.6 14.5 S 19.0 0.0 0.0
10:46 12.5 12.4 99 1018.7 15.9 S 19.0 0.0 0.0
10:47 12.5 12.4 99 1018.7 18.3 S 19.0 0.0 0.0
10:48 12.6 12.5 99 1018.8 16.8 S 18.3 0.0 0.0
10:48 12.6 12.5 99 1018.8 16.8 S 18.3 0.0 0.0
10:49 12.5 12.4 99 1018.6 15.9 SW 18.3 0.0 0.0
10:49 12.5 12.4 99 1018.6 15.9 SW 18.3 0.0 0.0
10:52 12.6 12.5 99 1018.6 17.4 SW 18.3 0.0 0.0
10:53 12.5 12.4 99 1018.5 22.1 SW 22.1 0.0 0.0
10:54 12.5 12.4 99 1018.6 16.8 SW 22.1 0.0 0.0
10:55 12.6 12.5 99 1018.6 11.4 SW 22.1 0.0 0.0
10:56 12.6 12.5 99 1018.6 10.7 S 22.1 0.0 0.0
10:56 12.6 12.5 99 1018.6 10.7 S 22.1 0.0 0.0
10:57 12.6 12.5 99 1018.6 13.0 S 22.1 0.0 0.0
10:59 12.6 12.5 99 1018.5 12.1 S 22.1 0.0 0.0
11:00 12.6 12.5 99 1018.5 12.1 S 22.1 0.0 0.0
11:00 12.6 12.5 99 1018.5 12.1 S 22.1 0.0 0.0
11:01 12.6 12.5 99 1018.5 15.2 WSW 22.1 0.0 0.0
11:02 12.7 12.6 99 1018.6 14.5 NNE 22.1 0.0 0.0
11:03 12.7 12.6 99 1018.6 13.0 SW 16.8 0.0 0.0
11:04 12.7 12.6 99 1018.5 17.4 S 17.4 0.0 0.0
11:06 12.7 12.6 99 1018.4 15.9 SW 18.3 0.0 0.0
11:07 12.7 12.6 99 1018.4 10.7 NW 18.3 0.0 0.0
11:07 12.7 12.6 99 1018.4 10.7 NW 18.3 0.0 0.0
11:08 12.8 12.7 99 1018.5 16.8 S 18.3 0.0 0.0
11:10 12.8 12.7 99 1018.5 19.7 S 22.1 0.0 0.0
11:10 12.8 12.7 99 1018.5 19.7 S 22.1 0.0 0.0
11:11 12.8 12.7 99 1018.5 13.6 SE 22.1 0.0 0.0
11:13 12.7 12.6 99 1018.5 17.4 SW 22.1 0.0 0.0
11:14 12.7 12.6 99 1018.4 14.5 SE 22.1 0.0 0.0
11:15 12.7 12.6 99 1018.3 14.5 SW 22.1 0.0 0.0
11:16 12.7 12.6 99 1018.3 13.6 WNW 22.1 0.0 0.0
11:17 12.7 12.6 99 1018.4 15.9 WNW 22.1 0.0 0.0
11:18 12.7 12.6 99 1018.4 15.9 S 22.1 0.0 0.0
11:19 12.7 12.6 99 1018.4 22.1 S 22.1 0.0 0.0
11:20 12.7 12.6 99 1018.4 23.5 SW 23.5 0.0 0.0
11:20 12.7 12.6 99 1018.4 23.5 SW 23.5 0.0 0.0
11:22 12.7 12.6 99 1018.2 15.9 S 23.5 0.0 0.0
11:22 12.7 12.6 99 1018.2 15.9 S 23.5 0.0 0.0
11:23 12.7 12.6 99 1018.2 14.5 SW 23.5 0.0 0.0
11:24 12.7 12.6 99 1018.3 19.0 S 23.5 0.0 0.0
11:25 12.7 12.6 99 1018.4 17.4 S 23.5 0.0 0.0
11:26 12.7 12.6 99 1018.3 16.8 S 23.5 0.0 0.0
11:27 12.6 12.5 99 1018.2 9.8 SW 23.5 0.0 0.0
11:28 12.7 12.6 99 1018.4 15.9 SW 23.5 0.0 0.0
11:29 12.6 12.5 99 1018.2 15.9 S 23.5 0.0 0.0
11:30 12.6 12.5 99 1018.3 15.2 NW 20.6 0.0 0.0
11:31 12.6 12.5 99 1018.2 16.8 S 20.6 0.0 0.0
11:32 12.6 12.5 99 1018.3 17.4 SW 19.7 0.0 0.0
11:33 12.6 12.5 99 1018.3 18.3 S 19.7 0.0 0.0
11:35 12.6 12.5 99 1018.3 13.6 NW 21.3 0.0 0.0
11:36 12.6 12.5 99 1018.2 17.4 SW 21.3 0.0 0.0
11:37 12.6 12.5 99 1018.2 12.1 S 21.3 0.0 0.0
11:38 12.6 12.5 99 1018.2 14.5 S 21.3 0.0 0.0
11:39 12.6 12.5 99 1018.1 15.9 S 21.3 0.0 0.0
11:39 12.6 12.5 99 1018.1 15.9 S 21.3 0.0 0.0
11:40 12.6 12.5 99 1018.1 17.4 SE 21.3 0.0 0.0
11:41 12.6 12.5 99 1017.9 16.8 SW 21.3 0.0 0.0
11:43 12.6 12.5 99 1018.1 17.4 SW 21.3 0.0 0.0
11:43 12.6 12.5 99 1018.1 17.4 SW 21.3 0.0 0.0
11:45 12.6 12.5 99 1017.9 16.8 S 18.3 0.0 0.0
11:45 12.6 12.5 99 1017.9 16.8 S 18.3 0.0 0.0
11:46 12.7 12.6 99 1018.0 15.9 SW 22.1 0.0 0.0
11:46 12.7 12.6 99 1018.0 15.9 SW 22.1 0.0 0.0
11:48 12.7 12.6 99 1018.0 18.3 S 22.1 0.0 0.0
11:48 12.7 12.6 99 1018.0 18.3 S 22.1 0.0 0.0
11:50 12.7 12.6 99 1017.9 15.9 SW 22.1 0.0 0.0
11:50 12.7 12.6 99 1017.9 15.9 SW 22.1 0.0 0.0
11:52 12.8 12.7 99 1018.0 19.0 WNW 22.1 0.0 0.0
11:52 12.8 12.7 99 1018.0 19.0 WNW 22.1 0.0 0.0
11:54 12.8 12.7 99 1017.9 13.6 S 22.1 0.0 0.0
11:54 12.8 12.7 99 1017.9 13.6 S 22.1 0.0 0.0
11:56 12.8 12.7 99 1017.8 16.8 W 19.0 0.0 0.0
11:56 12.8 12.7 99 1017.8 16.8 W 19.0 0.0 0.0
11:58 12.9 12.8 99 1017.9 15.2 S 19.0 0.0 0.0
11:58 12.9 12.8 99 1017.9 15.2 S 19.0 0.0 0.0
12:00 12.9 12.8 99 1017.9 16.8 SW 19.0 0.0 0.0
12:00 12.9 12.8 99 1017.9 16.8 SW 19.0 0.0 0.0
12:02 12.9 12.8 99 1017.7 15.2 SW 19.0 0.0 0.0
12:02 12.9 12.8 99 1017.7 15.2 SW 19.0 0.0 0.0
12:04 12.9 12.8 99 1017.7 15.9 S 19.0 0.0 0.0
12:04 12.9 12.8 99 1017.7 15.9 S 19.0 0.0 0.0
12:06 12.9 12.8 99 1017.7 15.9 S 19.0 0.0 0.0
12:06 12.9 12.8 99 1017.7 15.9 S 19.0 0.0 0.0
12:08 12.9 12.8 99 1018.0 24.4 SW 24.4 0.0 0.0
12:08 12.9 12.8 99 1018.0 24.4 SW 24.4 0.0 0.0
12:10 12.9 12.8 99 1017.7 19.7 S 24.4 0.0 0.0
12:10 12.9 12.8 99 1017.7 19.7 S 24.4 0.0 0.0
12:13 12.9 12.8 99 1017.9 19.0 SW 24.4 0.0 0.0
12:13 12.9 12.8 99 1017.9 19.0 SW 24.4 0.0 0.0
12:15 13.0 12.9 99 1017.6 15.9 S 24.4 0.0 0.0
12:15 13.0 12.9 99 1017.6 15.9 S 24.4 0.0 0.0
12:15 13.0 12.9 99 1017.6 15.9 S 24.4 0.0 0.0
12:17 13.0 12.9 99 1017.8 17.4 S 24.4 0.0 0.0
12:17 13.0 12.9 99 1017.8 17.4 S 24.4 0.0 0.0
12:19 13.0 12.9 99 1017.9 14.5 S 23.5 0.0 0.0
12:21 13.1 13.0 99 1017.8 21.3 SW 23.5 0.0 0.0
12:21 13.1 13.0 99 1017.8 21.3 SW 23.5 0.0 0.0
12:21 13.1 13.0 99 1017.8 21.3 SW 23.5 0.0 0.0
12:23 13.1 13.0 99 1017.9 19.7 SE 23.5 0.0 0.0
12:23 13.1 13.0 99 1017.9 19.7 SE 23.5 0.0 0.0
12:25 13.1 13.0 99 1017.6 17.4 S 23.5 0.0 0.0
12:25 13.1 13.0 99 1017.6 17.4 S 23.5 0.0 0.0
12:27 13.1 13.0 99 1017.6 17.4 SW 22.8 0.0 0.0
12:29 13.1 13.0 99 1017.7 21.3 SW 22.8 0.0 0.0
12:29 13.1 13.0 99 1017.7 21.3 SW 22.8 0.0 0.0
12:31 13.1 13.0 99 1017.6 19.0 SW 22.8 0.0 0.0
12:31 13.1 13.0 99 1017.6 19.0 SW 22.8 0.0 0.0
12:32 13.1 13.0 99 1017.6 18.3 NNW 22.8 0.0 0.0
12:34 13.1 13.0 99 1017.6 15.9 S 22.8 0.0 0.0
12:34 13.1 13.0 99 1017.6 15.9 S 22.8 0.0 0.0
12:35 13.1 13.0 99 1017.5 17.4 W 22.8 0.0 0.0
12:37 13.1 13.0 99 1017.6 14.5 SE 22.8 0.0 0.0
12:37 13.1 13.0 99 1017.6 14.5 SE 22.8 0.0 0.0
12:38 13.1 13.0 99 1017.6 21.3 SW 22.8 0.0 0.0
12:40 13.1 13.0 99 1017.8 21.3 S 21.3 0.0 0.0
12:41 13.1 13.0 99 1017.5 15.9 S 21.3 0.0 0.0
12:42 13.1 13.0 99 1017.5 15.2 S 21.3 0.0 0.0
12:43 13.0 12.9 99 1017.4 14.5 S 21.3 0.0 0.0
12:44 13.1 13.0 99 1017.6 14.5 SW 21.3 0.0 0.0
12:45 13.1 13.0 99 1017.5 18.3 SW 21.3 0.0 0.0
12:46 13.1 13.0 99 1017.4 18.3 SW 21.3 0.0 0.0
12:47 13.0 12.9 99 1017.4 17.4 S 21.3 0.0 0.0
12:48 13.1 13.0 99 1017.3 19.7 NW 21.3 0.0 0.0
12:49 13.0 12.9 99 1017.4 18.3 SW 21.3 0.0 0.0
12:50 13.0 12.9 99 1017.3 13.0 S 21.3 0.0 0.0
12:51 13.1 13.0 99 1017.5 16.8 S 19.7 0.0 0.0
12:52 13.1 13.0 99 1017.4 14.5 S 19.7 0.0 0.0
12:52 13.1 13.0 99 1017.4 14.5 S 19.7 0.0 0.0
12:53 13.2 13.1 99 1017.4 19.0 S 19.7 0.0 0.0
12:54 13.2 13.1 99 1017.5 16.8 SW 19.7 0.0 0.0
12:55 13.2 13.1 99 1017.4 19.7 SW 19.7 0.0 0.0
12:56 13.2 13.1 99 1017.6 17.4 NW 19.7 0.0 0.0
12:57 13.2 13.1 99 1017.5 17.4 S 19.7 0.0 0.0
12:59 13.2 13.1 99 1017.3 18.3 S 19.7 0.0 0.0
12:59 13.2 13.1 99 1017.3 18.3 S 19.7 0.0 0.0
13:00 13.2 13.1 99 1017.3 18.3 S 19.7 0.0 0.0
13:01 13.1 13.0 99 1017.5 14.5 WSW 19.7 0.0 0.0
13:02 13.1 13.0 99 1017.3 22.8 S 22.8 0.0 0.0
13:03 13.1 13.0 99 1017.4 17.4 S 22.8 0.0 0.0
13:04 13.1 13.0 99 1017.4 18.3 S 22.8 0.0 0.0
13:05 13.0 12.9 99 1017.4 22.8 S 22.8 0.0 0.0
13:07 13.0 12.9 99 1017.3 17.4 SW 22.8 0.0 0.0
13:07 13.0 12.9 99 1017.3 17.4 SW 22.8 0.0 0.0
13:09 13.0 12.9 99 1017.3 15.2 S 22.8 0.0 0.0
13:09 13.0 12.9 99 1017.3 15.2 S 22.8 0.0 0.0
13:10 13.0 12.9 99 1017.3 20.6 S 22.8 0.0 0.0
13:12 12.9 12.8 99 1017.3 15.9 SW 22.8 0.0 0.0
13:13 12.9 12.8 99 1017.2 19.0 SW 22.8 0.0 0.0
13:14 12.9 12.8 99 1017.2 14.5 SE 22.8 0.0 0.0
13:15 12.9 12.8 99 1017.1 13.6 S 22.8 0.0 0.0
13:16 12.9 12.8 99 1017.2 20.6 S 20.6 0.0 0.0
13:17 12.9 12.8 99 1017.3 19.0 S 20.6 0.0 0.0
13:18 12.9 12.8 99 1017.3 19.0 SW 20.6 0.0 0.0
13:19 12.9 12.8 99 1017.3 18.3 NW 20.6 0.0 0.0
13:20 12.9 12.8 99 1017.3 15.9 S 20.6 0.0 0.0
13:21 12.9 12.8 99 1017.3 9.8 SW 20.6 0.0 0.0
13:21 12.9 12.8 99 1017.3 9.8 SW 20.6 0.0 0.0
13:22 12.9 12.8 99 1017.3 19.7 W 20.6 0.0 0.0
13:23 12.9 12.8 99 1017.3 20.6 NW 20.6 0.0 0.0
13:24 12.9 12.8 99 1017.2 20.6 S 20.6 0.0 0.0
13:25 12.9 12.8 99 1017.3 18.3 S 20.6 0.0 0.0
13:26 12.9 12.8 99 1017.3 20.6 SW 20.6 0.0 0.0
13:27 12.9 12.8 99 1017.3 21.3 SW 21.3 0.0 0.0
13:28 12.9 12.8 99 1017.2 17.4 S 21.3 0.0 0.0
13:29 13.0 12.9 99 1017.3 17.4 SW 21.3 0.0 0.0
13:30 13.0 12.9 99 1017.3 13.0 SW 21.3 0.0 0.0
13:31 13.0 12.9 99 1017.2 17.4 S 21.3 0.0 0.0
13:32 13.0 12.9 99 1017.3 16.8 S 21.3 0.0 0.0
13:33 13.0 12.9 99 1017.2 15.9 SW 21.3 0.0 0.0
13:34 13.0 12.9 99 1017.3 15.9 S 21.3 0.0 0.0
13:35 13.1 13.0 99 1017.1 17.4 SE 21.3 0.0 0.0
13:36 13.1 13.0 99 1017.3 17.4 SW 21.3 0.0 0.0
13:37 13.1 13.0 99 1017.2 18.3 SW 18.3 0.0 0.0
13:38 13.1 13.0 99 1017.2 21.3 NNW 21.3 0.0 0.0
13:39 13.1 13.0 99 1017.2 15.2 SW 21.3 0.0 0.0
13:41 13.1 13.0 99 1017.1 17.4 SW 21.3 0.0 0.0
13:42 13.1 13.0 99 1017.2 15.2 SW 21.3 0.0 0.0
13:43 13.1 13.0 99 1017.3 16.8 S 21.3 0.0 0.0
13:44 13.1 13.0 99 1017.0 22.1 SW 22.1 0.0 0.0
13:45 13.1 13.0 99 1017.2 20.6 SW 22.1 0.0 0.0
13:46 13.1 13.0 99 1017.2 16.8 S 22.1 0.0 0.0
13:47 13.1 13.0 99 1017.1 19.0 S 22.1 0.0 0.0
13:48 13.1 13.0 99 1017.2 16.8 SW 22.1 0.0 0.0
13:49 13.1 13.0 99 1017.0 20.6 S 22.1 0.0 0.0
13:50 13.1 13.0 99 1017.0 15.2 S 22.1 0.0 0.0
13:51 13.1 13.0 99 1017.0 18.3 WNW 22.1 0.0 0.0
13:52 13.1 13.0 99 1017.0 15.9 SW 22.1 0.0 0.0
13:53 13.1 13.0 99 1017.1 15.2 SW 22.1 0.0 0.0
13:54 13.1 13.0 99 1017.1 15.9 SW 22.1 0.0 0.0
13:55 13.2 13.1 99 1017.0 17.4 S 20.6 0.0 0.0
13:55 13.2 13.1 99 1017.0 17.4 S 20.6 0.0 0.0
13:56 13.2 13.1 99 1016.9 13.0 S 20.6 0.0 0.0
13:57 13.2 13.1 99 1016.9 14.5 NNW 20.6 0.0 0.0
13:58 13.2 13.1 99 1017.1 25.9 S 25.9 0.0 0.0
13:59 13.2 13.1 99 1017.0 19.7 S 25.9 0.0 0.0
14:00 13.2 13.1 99 1017.1 19.7 S 25.9 0.0 0.0
14:01 13.3 13.2 99 1016.9 16.8 S 25.9 0.0 0.0
14:02 13.3 13.2 99 1017.1 16.8 S 25.9 0.0 0.0
14:03 13.3 13.2 99 1017.0 12.1 S 25.9 0.0 0.0
14:05 13.3 13.2 99 1017.0 14.5 S 25.9 0.0 0.0
14:06 13.3 13.2 99 1017.0 15.9 S 25.9 0.0 0.0
14:06 13.3 13.2 99 1017.0 15.9 S 25.9 0.0 0.0
14:07 13.3 13.2 99 1017.0 20.6 SW 25.9 0.0 0.0
14:07 13.3 13.2 99 1017.0 20.6 SW 25.9 0.0 0.0
14:09 13.3 13.2 99 1017.1 21.3 S 21.3 0.0 0.0
14:11 13.3 13.2 99 1016.9 19.0 SE 21.3 0.0 0.0
14:11 13.3 13.2 99 1016.9 19.0 SE 21.3 0.0 0.0
14:12 13.2 13.1 99 1016.9 15.2 S 21.3 0.0 0.0
14:13 13.2 13.1 99 1016.8 17.4 W 21.3 0.0 0.0
14:14 13.2 13.1 99 1016.9 19.7 W 21.3 0.0 0.0
14:15 13.3 13.2 99 1016.9 16.8 S 21.3 0.0 0.0
14:16 13.3 13.2 99 1016.9 13.0 S 21.3 0.0 0.0
14:17 13.3 13.2 99 1016.8 16.8 S 21.3 0.0 0.0
14:19 13.3 13.2 99 1016.9 19.7 SW 21.3 0.0 0.0
14:20 13.3 13.2 99 1017.0 19.0 SW 21.3 0.0 0.0
14:20 13.3 13.2 99 1017.0 19.0 SW 21.3 0.0 0.0
14:21 13.3 13.2 99 1017.0 16.8 SW 21.3 0.0 0.0
14:22 13.3 13.2 99 1016.9 15.2 S 21.3 0.0 0.0
14:23 13.3 13.2 99 1016.9 19.7 S 21.3 0.0 0.0
14:24 13.3 13.2 99 1017.0 16.8 S 21.3 0.0 0.0
14:25 13.2 13.1 99 1017.0 15.2 S 21.3 0.0 0.0
14:26 13.2 13.1 99 1016.9 16.8 S 21.3 0.0 0.0
14:27 13.2 13.1 99 1017.1 21.3 S 21.3 0.0 0.0
14:28 13.2 13.1 99 1017.1 15.2 S 21.3 0.0 0.0
14:29 13.1 13.0 99 1017.1 19.0 WNW 21.3 0.0 0.0
14:30 13.1 13.0 99 1017.0 19.7 SW 21.3 0.0 0.0
14:32 13.1 13.0 99 1016.9 19.0 SW 21.3 0.0 0.0
14:33 13.1 13.0 99 1016.9 18.3 SW 21.3 0.0 0.0
14:34 13.0 12.9 99 1016.9 17.4 S 21.3 0.0 0.0
14:35 13.0 12.9 99 1016.9 15.2 SW 21.3 0.0 0.0
14:36 13.0 12.9 99 1017.1 13.0 SW 21.3 0.0 0.0
14:37 13.0 12.9 99 1016.8 14.5 S 21.3 0.0 0.0
14:38 13.0 12.9 99 1017.0 13.6 SW 20.6 0.0 0.0
14:39 13.1 13.0 99 1016.8 15.9 W 19.7 0.0 0.0
14:39 13.1 13.0 99 1016.8 15.9 W 19.7 0.0 0.0
14:40 13.1 13.0 99 1016.9 15.2 SW 19.7 0.0 0.0
14:41 13.1 13.0 99 1016.9 15.2 S 19.0 0.0 0.0
14:42 13.0 12.9 99 1016.9 17.4 SW 19.0 0.0 0.0
14:43 13.0 12.9 99 1016.9 19.7 S 19.7 0.0 0.0
14:44 13.0 12.9 99 1016.8 15.2 SW 19.7 0.0 0.0
14:45 13.0 12.9 99 1016.9 19.0 SW 19.7 0.0 0.0
14:47 13.0 12.9 99 1016.9 14.5 SW 19.7 0.0 0.0
14:48 13.0 12.9 99 1017.0 14.5 S 19.7 0.0 0.0
14:49 13.0 12.9 99 1017.0 19.0 SW 19.7 0.0 0.0
14:50 13.0 12.9 99 1017.0 18.3 S 19.7 0.0 0.0
14:51 12.9 12.8 99 1016.9 13.0 SW 19.7 0.0 0.0
14:52 12.9 12.8 99 1017.0 17.4 SW 19.7 0.0 0.0
14:53 12.9 12.8 99 1016.8 15.2 NNE 19.7 0.0 0.0
14:54 12.9 12.8 99 1016.9 15.2 S 19.0 0.0 0.0
14:55 12.9 12.8 99 1016.7 12.1 SW 19.0 0.0 0.0
14:56 12.9 12.8 99 1016.9 15.9 S 19.0 0.0 0.0
14:57 12.9 12.8 99 1016.9 16.8 SW 19.0 0.0 0.0
14:58 12.9 12.8 99 1016.8 14.5 SW 19.0 0.0 0.0
14:59 12.9 12.8 99 1016.9 14.5 SW 18.3 0.0 0.0
15:00 12.9 12.8 99 1016.6 14.5 SW 17.4 0.0 0.0
15:01 12.9 12.8 99 1016.8 14.5 SW 17.4 0.0 0.0
15:02 12.8 12.7 99 1016.7 18.3 S 20.6 0.0 0.0
15:03 12.8 12.7 99 1016.9 15.2 SW 20.6 0.0 0.0
15:04 12.8 12.7 99 1016.8 15.9 S 20.6 0.0 0.0
15:05 12.8 12.7 99 1016.7 14.5 S 20.6 0.0 0.0
15:06 12.8 12.7 99 1016.8 18.3 W 20.6 0.0 0.0
15:06 12.8 12.7 99 1016.8 18.3 W 20.6 0.0 0.0
15:08 12.8 12.7 99 1016.8 15.2 SW 20.6 0.0 0.0
15:09 12.8 12.7 99 1016.8 13.6 WNW 20.6 0.0 0.0
15:09 12.8 12.7 99 1016.8 13.6 WNW 20.6 0.0 0.0
15:11 12.7 12.6 99 1016.9 14.5 S 20.6 0.0 0.0
15:12 12.7 12.6 99 1016.8 13.0 S 20.6 0.0 0.0
15:12 12.7 12.6 99 1016.8 13.0 S 20.6 0.0 0.0
15:14 12.7 12.6 99 1016.9 15.2 S 20.6 0.0 0.0
15:15 12.7 12.6 99 1017.0 16.8 NNW 20.6 0.0 0.0
15:16 12.7 12.6 99 1016.8 15.9 SW 20.6 0.0 0.0
15:17 12.7 12.6 99 1016.8 15.2 SW 18.3 0.0 0.0
15:18 12.7 12.6 99 1016.9 14.5 S 16.8 0.0 0.0
15:19 12.6 12.5 99 1017.0 15.9 S 16.8 0.0 0.0
15:20 12.6 12.5 99 1016.9 12.1 S 16.8 0.0 0.0
15:21 12.6 12.5 99 1017.0 13.0 SW 16.8 0.0 0.0
15:22 12.6 12.5 99 1016.7 11.4 S 16.8 0.0 0.0
15:22 12.6 12.5 99 1016.7 11.4 S 16.8 0.0 0.0
15:24 12.6 12.5 99 1016.7 14.5 S 16.8 0.0 0.0
15:25 12.6 12.5 99 1016.7 10.7 SW 16.8 0.0 0.0
15:26 12.6 12.5 99 1016.7 10.7 SW 15.9 0.0 0.0
15:27 12.6 12.5 99 1016.8 10.7 S 15.9 0.0 0.0
15:28 12.6 12.5 99 1016.8 13.6 WNW 15.9 0.0 0.0
15:29 12.6 12.5 99 1016.9 10.7 SW 15.2 0.0 0.0
15:30 12.6 12.5 99 1016.7 11.4 S 14.5 0.0 0.0
15:31 12.6 12.5 99 1016.7 14.5 S 14.5 0.0 0.0
15:32 12.6 12.5 99 1016.8 13.0 S 14.5 0.0 0.0
15:33 12.6 12.5 99 1016.8 10.7 S 14.5 0.0 0.0
15:34 12.6 12.5 99 1016.9 12.1 S 14.5 0.0 0.0
15:34 12.6 12.5 99 1016.9 12.1 S 14.5 0.0 0.0
15:35 12.6 12.5 99 1016.6 10.7 W 14.5 0.0 0.0
15:37 12.6 12.5 99 1016.7 11.4 S 14.5 0.0 0.0
15:38 12.6 12.5 99 1016.8 16.8 S 16.8 0.0 0.0
15:39 12.6 12.5 99 1016.7 14.5 S 16.8 0.0 0.0
15:40 12.6 12.5 99 1016.7 13.0 S 16.8 0.0 0.0
15:41 12.6 12.5 99 1016.8 9.8 S 16.8 0.0 0.0
15:42 12.5 12.4 99 1016.8 14.5 S 16.8 0.0 0.0
15:43 12.6 12.5 99 1016.8 15.2 S 16.8 0.0 0.0
15:44 12.6 12.5 99 1016.8 13.0 S 16.8 0.0 0.0
15:45 12.5 12.4 99 1016.8 13.0 S 16.8 0.0 0.0
15:46 12.5 12.4 99 1016.7 9.8 S 16.8 0.0 0.0
15:47 12.5 12.4 99 1016.9 9.8 S 16.8 0.0 0.0
15:48 12.5 12.4 99 1016.8 13.0 N 16.8 0.0 0.0
15:49 12.5 12.4 99 1016.9 13.6 N 15.2 0.0 0.0
15:50 12.5 12.4 99 1016.6 13.6 WNW 15.2 0.0 0.0
15:51 12.5 12.4 99 1016.8 12.1 S 15.2 0.0 0.0
15:52 12.5 12.4 99 1016.8 14.5 S 15.2 0.0 0.0
15:53 12.5 12.4 99 1016.7 9.2 S 14.5 0.0 0.0
15:54 12.4 12.3 99 1016.8 6.9 NE 14.5 0.0 0.0
15:55 12.4 12.3 99 1016.7 11.4 N 14.5 0.0 0.0
15:56 12.4 12.3 99 1016.6 11.4 N 14.5 0.0 0.0
15:57 12.4 12.3 99 1016.7 9.8 N 14.5 0.0 0.0
15:58 12.4 12.3 99 1016.7 12.1 S 14.5 0.0 0.0
15:59 12.4 12.3 99 1016.8 13.6 S 14.5 0.0 0.0
16:00 12.4 12.3 99 1016.7 13.6 S 14.5 0.0 0.0
16:01 12.4 12.3 99 1016.7 13.6 S 14.5 0.0 0.0
16:02 12.3 12.2 99 1016.6 8.3 S 13.6 0.0 0.0
16:03 12.3 12.2 99 1016.6 9.8 S 13.6 0.0 0.0
16:04 12.3 12.2 99 1016.6 9.2 S 13.6 0.0 0.0
16:04 12.3 12.2 99 1016.6 9.2 S 13.6 0.0 0.0
16:06 12.3 12.2 99 1016.6 10.7 N 13.6 0.0 0.0
16:07 12.3 12.2 99 1016.6 11.4 NW 13.6 0.0 0.0
16:07 12.3 12.2 99 1016.6 11.4 NW 13.6 0.0 0.0
16:08 12.3 12.2 99 1016.6 11.4 S 13.6 0.0 0.0
16:10 12.3 12.2 99 1016.5 11.4 W 13.6 0.0 0.0
16:10 12.3 12.2 99 1016.5 11.4 W 13.6 0.0 0.0
16:11 12.3 12.2 99 1016.4 10.7 W 12.1 0.0 0.0
16:13 12.3 12.2 99 1016.4 9.8 N 12.1 0.0 0.0
16:14 12.2 12.1 99 1016.6 8.3 S 12.1 0.0 0.0
16:15 12.3 12.2 99 1016.5 9.2 S 12.1 0.0 0.0
16:16 12.2 12.1 99 1016.4 11.4 S 12.1 0.0 0.0
16:17 12.2 12.1 99 1016.3 11.4 S 12.1 0.0 0.0
16:18 12.2 12.1 99 1016.3 11.4 S 12.1 0.0 0.0
16:19 12.2 12.1 99 1016.2 9.2 N 12.1 0.0 0.0
16:20 12.2 12.1 99 1016.2 10.7 S 12.1 0.0 0.0
16:21 12.2 12.1 99 1016.4 11.4 WSW 12.1 0.0 0.0
16:22 12.1 12.0 99 1016.4 11.4 S 12.1 0.0 0.0
16:23 12.1 12.0 99 1016.4 12.1 S 12.1 0.0 0.0
16:24 12.2 12.1 99 1016.3 13.0 S 13.0 0.0 0.0
16:25 12.1 12.0 99 1016.3 13.0 WNW 13.0 0.0 0.0
16:26 12.1 12.0 99 1016.3 10.7 WSW 13.0 0.0 0.0
16:27 12.1 12.0 99 1016.4 12.1 S 13.0 0.0 0.0
16:28 12.1 12.0 99 1016.5 11.4 WSW 13.0 0.0 0.0
16:29 12.1 12.0 99 1016.5 8.3 WSW 13.0 0.0 0.0
16:30 12.1 12.0 99 1016.7 13.0 W 13.0 0.0 0.0
16:31 12.1 12.0 99 1016.4 9.2 WSW 13.0 0.0 0.0
16:32 12.1 12.0 99 1016.6 10.7 S 13.0 0.0 0.0
16:33 12.1 12.0 99 1016.6 9.2 S 13.0 0.0 0.0
16:34 12.0 11.9 99 1016.4 9.8 N 13.0 0.0 0.0
16:34 12.0 11.9 99 1016.4 9.8 N 13.0 0.0 0.0
16:35 12.0 11.9 99 1016.6 9.2 WSW 13.0 0.0 0.0
16:37 12.0 11.9 99 1016.3 10.7 S 13.0 0.0 0.0
16:38 12.0 11.9 99 1016.3 9.8 W 13.0 0.0 0.0
16:39 12.0 11.9 99 1016.2 11.4 NW 13.0 0.0 0.0
16:40 12.0 11.9 99 1016.3 9.2 S 13.0 0.0 0.0
16:41 12.0 11.9 99 1016.2 10.7 WSW 13.0 0.0 0.0
16:42 12.0 11.9 99 1016.4 11.4 S 11.4 0.0 0.0
16:43 11.9 11.8 99 1016.3 12.1 WSW 12.1 0.0 0.0
16:44 12.0 11.9 99 1016.4 9.2 WSW 12.1 0.0 0.0
16:45 12.0 11.9 99 1016.4 10.7 S 12.1 0.0 0.0
16:46 11.9 11.8 99 1016.2 7.6 WSW 12.1 0.0 0.0
16:47 11.9 11.8 99 1016.3 9.8 WSW 12.1 0.0 0.0
16:48 11.9 11.8 99 1016.3 9.8 S 12.1 0.0 0.0
16:49 11.9 11.8 99 1016.4 7.6 WSW 12.1 0.0 0.0
16:50 11.9 11.8 99 1016.3 8.3 WSW 12.1 0.0 0.0
16:51 11.9 11.8 99 1016.5 10.7 S 12.1 0.0 0.0
16:52 11.9 11.8 99 1016.4 9.8 NE 12.1 0.0 0.0
16:53 11.9 11.8 99 1016.3 8.3 S 10.7 0.0 0.0
16:54 11.9 11.8 99 1016.4 7.6 SE 10.7 0.0 0.0
16:54 11.9 11.8 99 1016.4 7.6 SE 10.7 0.0 0.0
16:55 11.9 11.8 99 1016.4 6.9 S 10.7 0.0 0.0
16:56 11.9 11.8 99 1016.4 9.2 S 10.7 0.0 0.0
16:57 11.8 11.7 99 1016.3 8.3 WSW 10.7 0.0 0.0
16:59 11.9 11.8 99 1016.5 8.3 WSW 10.7 0.0 0.0
17:00 11.9 11.8 99 1016.4 9.8 S 10.7 0.0 0.0
17:01 11.9 11.8 99 1016.6 9.8 S 10.7 0.0 0.0
17:02 11.9 11.8 99 1016.3 10.7 S 10.7 0.0 0.0
17:03 11.9 11.8 99 1016.3 9.8 S 10.7 0.0 0.0
17:04 11.9 11.8 99 1016.3 7.6 S 10.7 0.0 0.0
17:05 11.9 11.8 99 1016.3 7.6 S 10.7 0.0 0.0
17:06 11.9 11.8 99 1016.3 7.6 S 10.7 0.0 0.0
17:06 11.9 11.8 99 1016.3 7.6 S 10.7 0.0 0.0
17:07 11.9 11.8 99 1016.2 9.8 S 10.7 0.0 0.0
17:09 11.9 11.8 99 1016.2 8.3 S 10.7 0.0 0.0
17:09 11.9 11.8 99 1016.2 8.3 S 10.7 0.0 0.0
17:10 11.9 11.8 99 1016.3 9.2 WSW 10.7 0.0 0.0
17:12 11.9 11.8 99 1016.4 10.7 W 10.7 0.0 0.0
17:12 11.9 11.8 99 1016.4 10.7 W 10.7 0.0 0.0
17:14 11.9 11.8 99 1016.4 7.6 NNW 10.7 0.0 0.0
17:15 11.9 11.8 99 1016.2 7.6 S 10.7 0.0 0.0
17:16 11.9 11.8 99 1016.2 9.2 S 10.7 0.0 0.0
17:17 11.9 11.8 99 1016.2 9.2 S 10.7 0.0 0.0
17:17 11.9 11.8 99 1016.2 9.2 S 10.7 0.0 0.0
17:18 11.9 11.8 99 1016.4 9.2 WSW 12.1 0.0 0.0
17:20 11.9 11.8 99 1016.2 11.4 WSW 12.1 0.0 0.0
17:21 11.9 11.8 99 1016.2 6.9 S 12.1 0.0 0.0
17:22 11.8 11.7 99 1016.2 10.7 WSW 12.1 0.0 0.0
17:23 11.9 11.8 99 1016.2 9.8 SE 12.1 0.0 0.0
17:24 11.9 11.8 99 1016.3 13.0 WSW 13.0 0.0 0.0
17:24 11.9 11.8 99 1016.3 13.0 WSW 13.0 0.0 0.0
17:26 11.9 11.8 99 1016.1 11.4 S 13.0 0.0 0.0
17:27 11.9 11.8 99 1016.3 6.9 S 13.0 0.0 0.0
17:28 11.9 11.8 99 1016.2 9.2 S 13.0 0.0 0.0
17:29 11.9 11.8 99 1016.2 6.9 WSW 13.0 0.0 0.0
17:30 11.9 11.8 99 1016.2 9.2 S 13.0 0.0 0.0
17:31 11.9 11.8 99 1016.1 8.3 S 13.0 0.0 0.0
17:31 11.9 11.8 99 1016.1 8.3 S 13.0 0.0 0.0
17:32 11.8 11.7 99 1016.2 9.8 S 13.0 0.0 0.0
17:33 11.9 11.8 99 1016.3 9.8 S 13.0 0.0 0.0
17:35 11.9 11.8 99 1016.1 8.3 WSW 11.4 0.0 0.0
17:36 11.9 11.8 99 1016.1 6.9 S 11.4 0.0 0.0
17:37 11.9 11.8 99 1016.3 7.6 SE 11.4 0.0 0.0
17:38 11.8 11.7 99 1016.2 12.1 WSW 12.1 0.0 0.0
17:39 11.8 11.7 99 1016.1 7.6 S 12.1 0.0 0.0
17:40 11.8 11.7 99 1016.2 9.2 WSW 12.1 0.0 0.0
17:41 11.8 11.7 99 1016.1 9.8 S 12.1 0.0 0.0
17:41 11.8 11.7 99 1016.1 9.8 S 12.1 0.0 0.0
17:42 11.8 11.7 99 1016.1 8.3 SE 12.1 0.0 0.0
17:44 11.8 11.7 99 1016.1 12.1 WSW 12.1 0.0 0.0
17:45 11.8 11.7 99 1016.1 9.2 S 12.1 0.0 0.0
17:46 11.9 11.8 99 1016.2 10.7 S 12.1 0.0 0.0
17:47 11.8 11.7 99 1016.3 9.8 S 12.1 0.0 0.0
17:48 11.8 11.7 99 1016.2 9.8 S 12.1 0.0 0.0
17:48 11.8 11.7 99 1016.2 9.8 S 12.1 0.0 0.0
17:49 11.8 11.7 99 1016.2 8.3 S 12.1 0.0 0.0
17:50 11.8 11.7 99 1016.1 9.2 S 12.1 0.0 0.0
17:52 11.8 11.7 99 1016.3 8.3 S 12.1 0.0 0.0
17:53 11.8 11.7 99 1016.3 9.8 S 12.1 0.0 0.0
17:54 11.8 11.7 99 1016.1 10.7 WSW 12.1 0.0 0.0
17:55 11.8 11.7 99 1016.2 8.3 WSW 10.7 0.0 0.0
17:56 11.8 11.7 99 1016.3 13.0 S 13.0 0.0 0.0
17:57 11.8 11.7 99 1016.2 10.7 WSW 13.0 0.0 0.0
17:58 11.8 11.7 99 1016.2 11.4 S 13.0 0.0 0.0
17:59 11.8 11.7 99 1016.2 13.0 WSW 13.0 0.0 0.0
18:00 11.8 11.7 99 1016.0 13.0 WSW 13.0 0.0 0.0
18:00 11.8 11.7 99 1016.0 13.0 WSW 13.0 0.0 0.0
18:01 11.8 11.7 99 1016.1 13.0 WSW 13.0 0.0 0.0
18:03 11.8 11.7 99 1016.0 13.0 WSW 13.0 0.0 0.0
18:04 11.8 11.7 99 1016.2 13.0 WSW 13.0 0.0 0.0
18:05 11.8 11.7 99 1016.1 13.0 WSW 13.0 0.0 0.0
18:06 11.7 11.6 99 1016.0 13.0 WSW 13.0 0.0 0.0
18:06 11.7 11.6 99 1016.0 13.0 WSW 13.0 0.0 0.0
18:07 11.7 11.6 99 1016.1 12.1 S 13.0 0.0 0.0
18:09 11.7 11.6 99 1016.1 13.0 WSW 13.0 0.0 0.0
18:09 11.7 11.6 99 1016.1 13.0 WSW 13.0 0.0 0.0
18:11 11.7 11.6 99 1016.1 11.4 S 13.0 0.0 0.0
18:12 11.7 11.6 99 1016.2 11.4 WSW 13.6 0.0 0.0
18:12 11.7 11.6 99 1016.2 11.4 WSW 13.6 0.0 0.0
18:14 11.7 11.6 99 1016.2 9.2 WSW 13.6 0.0 0.0
18:15 11.7 11.6 99 1016.3 13.0 S 13.6 0.0 0.0
18:16 11.7 11.6 99 1016.2 9.2 N 13.6 0.0 0.0
18:17 11.7 11.6 99 1016.3 12.1 NW 13.6 0.0 0.0
18:18 11.7 11.6 99 1016.1 15.2 NW 15.2 0.0 0.0
18:20 11.7 11.6 99 1016.2 11.4 S 15.2 0.0 0.0
18:21 11.7 11.6 99 1015.9 7.6 S 15.2 0.0 0.0
18:22 11.7 11.6 99 1016.1 8.3 S 15.2 0.0 0.0
18:23 11.7 11.6 99 1016.2 11.4 S 15.2 0.0 0.0
18:24 11.7 11.6 99 1016.1 9.8 S 15.2 0.0 0.0
18:25 11.7 11.6 99 1016.1 9.8 S 15.2 0.0 0.0
18:26 11.7 11.6 99 1016.1 8.3 S 15.2 0.0 0.0
18:27 11.7 11.6 99 1016.2 7.6 S 15.2 0.0 0.0
18:27 11.7 11.6 99 1016.2 7.6 S 15.2 0.0 0.0
18:29 11.7 11.6 99 1016.0 8.3 S 11.4 0.0 0.0
18:30 11.7 11.6 99 1016.1 7.6 WSW 11.4 0.0 0.0
18:31 11.7 11.6 99 1016.1 6.0 WSW 11.4 0.0 0.0
18:32 11.7 11.6 99 1016.1 7.6 WSW 11.4 0.0 0.0
18:33 11.7 11.6 99 1016.1 9.2 S 10.7 0.0 0.0
18:34 11.6 11.5 99 1016.1 11.4 S 11.4 0.0 0.0
18:35 11.6 11.5 99 1016.0 9.2 WSW 11.4 0.0 0.0
18:36 11.6 11.5 99 1016.2 9.8 S 11.4 0.0 0.0
18:36 11.6 11.5 99 1016.2 9.8 S 11.4 0.0 0.0
18:37 11.6 11.5 99 1016.0 8.3 S 11.4 0.0 0.0
18:39 11.6 11.5 99 1016.1 7.6 SE 11.4 0.0 0.0
18:40 11.6 11.5 99 1016.2 9.2 SE 11.4 0.0 0.0
18:41 11.6 11.5 99 1016.0 9.2 WSW 11.4 0.0 0.0
18:42 11.6 11.5 99 1016.2 9.2 S 11.4 0.0 0.0
18:43 11.6 11.5 99 1016.2 6.9 S 11.4 0.0 0.0
18:44 11.6 11.5 99 1016.1 8.3 WSW 11.4 0.0 0.0
18:45 11.6 11.5 99 1016.0 9.8 WSW 9.8 0.0 0.0
18:46 11.6 11.5 99 1016.2 9.8 W 9.8 0.0 0.0
18:46 11.6 11.5 99 1016.2 9.8 W 9.8 0.0 0.0
18:47 11.6 11.5 99 1016.2 7.6 S 9.8 0.0 0.0
18:48 11.6 11.5 99 1016.1 9.8 S 9.8 0.0 0.0
18:50 11.6 11.5 99 1016.2 12.1 WSW 12.1 0.0 0.0
18:51 11.6 11.5 99 1016.1 8.3 WSW 12.1 0.0 0.0
18:52 11.6 11.5 99 1016.1 11.4 NNW 12.1 0.0 0.0
18:53 11.6 11.5 99 1016.2 10.7 S 12.1 0.0 0.0
18:54 11.6 11.5 99 1016.2 8.3 S 12.1 0.0 0.0
18:55 11.6 11.5 99 1016.2 9.2 SE 12.1 0.0 0.0
18:56 11.6 11.5 99 1016.2 10.7 W 12.1 0.0 0.0
18:57 11.6 11.5 99 1016.2 8.3 S 12.1 0.0 0.0
18:57 11.6 11.5 99 1016.2 8.3 S 12.1 0.0 0.0
18:58 11.6 11.5 99 1016.3 6.0 S 12.1 0.0 0.0
18:59 11.6 11.5 99 1016.2 10.7 WSW 12.1 0.0 0.0
19:01 11.6 11.5 99 1016.3 10.7 WSW 11.4 0.0 0.0
19:02 11.6 11.5 99 1016.3 10.7 WSW 10.7 0.0 0.0
19:03 11.6 11.5 99 1016.3 10.7 WSW 10.7 0.0 0.0
19:04 11.6 11.5 99 1016.4 10.7 WSW 10.7 0.0 0.0
19:05 11.6 11.5 99 1016.4 10.7 WSW 10.7 0.0 0.0
19:05 11.6 11.5 99 1016.4 10.7 WSW 10.7 0.0 0.0
19:06 11.6 11.5 99 1016.2 8.3 S 11.4 0.0 0.0
19:08 11.6 11.5 99 1016.1 7.6 S 11.4 0.0 0.0
19:08 11.6 11.5 99 1016.1 7.6 S 11.4 0.0 0.0
19:10 11.6 11.5 99 1016.1 7.6 S 11.4 0.0 0.0
19:10 11.6 11.5 99 1016.1 7.6 S 11.4 0.0 0.0
19:11 11.6 11.5 99 1016.3 9.8 WSW 12.1 0.0 0.0
19:13 11.7 11.6 99 1016.2 6.0 WSW 12.1 0.0 0.0
19:13 11.7 11.6 99 1016.2 6.0 WSW 12.1 0.0 0.0
19:15 11.6 11.5 99 1016.3 8.3 SW 12.1 0.0 0.0
19:16 11.6 11.5 99 1016.3 9.2 S 12.1 0.0 0.0
19:17 11.6 11.5 99 1016.2 9.2 WSW 12.1 0.0 0.0
19:18 11.7 11.6 99 1016.3 8.3 S 12.1 0.0 0.0
19:19 11.6 11.5 99 1016.2 6.0 S 12.1 0.0 0.0
19:19 11.6 11.5 99 1016.2 6.0 S 12.1 0.0 0.0
19:20 11.6 11.5 99 1016.3 6.0 S 12.1 0.0 0.0
19:22 11.6 11.5 99 1016.3 7.6 SE 9.2 0.0 0.0
19:23 11.7 11.6 99 1016.2 5.4 S 9.2 0.0 0.0
19:24 11.6 11.5 99 1016.3 6.9 NW 9.2 0.0 0.0
19:25 11.6 11.5 99 1016.2 8.3 S 9.2 0.0 0.0
19:26 11.6 11.5 99 1016.2 7.6 SE 9.2 0.0 0.0
19:27 11.6 11.5 99 1016.2 6.9 S 9.2 0.0 0.0
19:28 11.6 11.5 99 1016.2 7.6 N 11.4 0.0 0.0
19:29 11.6 11.5 99 1016.1 6.0 S 11.4 0.0 0.0
19:30 11.6 11.5 99 1016.3 7.6 S 11.4 0.0 0.0
19:30 11.6 11.5 99 1016.3 7.6 S 11.4 0.0 0.0
19:31 11.6 11.5 99 1016.1 6.9 S 11.4 0.0 0.0
19:33 11.6 11.5 99 1016.2 6.9 S 11.4 0.0 0.0
19:34 11.6 11.5 99 1016.2 6.0 S 11.4 0.0 0.0
19:35 11.6 11.5 99 1016.2 6.9 S 11.4 0.0 0.0
19:36 11.6 11.5 99 1016.2 7.6 WSW 11.4 0.0 0.0
19:37 11.5 11.4 99 1016.2 7.6 S 11.4 0.0 0.0
19:38 11.5 11.4 99 1016.2 9.2 SE 9.2 0.0 0.0
19:38 11.5 11.4 99 1016.2 9.2 SE 9.2 0.0 0.0
19:39 11.5 11.4 99 1016.1 9.2 S 9.2 0.0 0.0
19:41 11.5 11.4 99 1016.1 6.0 SE 9.2 0.0 0.0
19:42 11.5 11.4 99 1016.1 6.0 S 9.2 0.0 0.0
19:43 11.5 11.4 99 1016.2 6.0 S 9.2 0.0 0.0
19:45 11.5 11.4 99 1016.1 5.4 WSW 9.2 0.0 0.0
19:46 11.4 11.3 99 1016.4 3.8 S 9.2 0.0 0.0
19:47 11.4 11.3 99 1016.3 5.4 S 9.2 0.0 0.0
19:48 11.4 11.3 99 1016.2 7.6 S 9.2 0.0 0.0
19:49 11.4 11.3 99 1016.3 6.9 SE 9.2 0.0 0.0
19:49 11.4 11.3 99 1016.3 6.9 SE 9.2 0.0 0.0
19:50 11.4 11.3 99 1016.2 7.6 WSW 7.6 0.0 0.0
19:52 11.4 11.3 99 1016.1 6.9 S 7.6 0.0 0.0
19:53 11.3 11.2 99 1016.2 6.9 WSW 7.6 0.0 0.0
19:54 11.3 11.2 99 1016.1 5.4 S 7.6 0.0 0.0
19:55 11.3 11.2 99 1016.2 6.9 WSW 7.6 0.0 0.0
19:56 11.3 11.2 99 1016.2 6.0 S 7.6 0.0 0.0
19:57 11.2 11.1 99 1016.2 7.6 S 7.6 0.0 0.0
19:57 11.2 11.1 99 1016.2 7.6 S 7.6 0.0 0.0
19:58 11.2 11.1 99 1016.1 6.9 S 7.6 0.0 0.0
19:59 11.2 11.1 99 1016.0 6.0 SE 7.6 0.0 0.0
20:01 11.2 11.1 99 1016.2 6.0 SE 7.6 0.0 0.0
20:02 11.2 11.1 99 1016.1 6.0 SE 7.6 0.0 0.0
20:03 11.2 11.1 99 1016.2 6.0 SE 7.6 0.0 0.0
20:04 11.2 11.1 99 1016.1 6.0 SE 7.6 0.0 0.0
20:04 11.2 11.1 99 1016.1 6.0 SE 7.6 0.0 0.0
20:05 11.2 11.1 99 1016.2 6.0 SE 7.6 0.0 0.0
20:07 11.1 11.0 99 1016.1 5.4 S 9.2 0.0 0.0
20:08 11.2 11.1 99 1016.1 6.9 WSW 9.2 0.0 0.0
20:08 11.2 11.1 99 1016.1 6.9 WSW 9.2 0.0 0.0
20:10 11.2 11.1 99 1016.0 5.4 S 9.2 0.0 0.0
20:11 11.2 11.1 99 1016.2 6.0 NE 9.2 0.0 0.0
20:11 11.2 11.1 99 1016.2 6.0 NE 9.2 0.0 0.0
20:13 11.1 11.0 99 1016.2 7.6 S 9.2 0.0 0.0
20:13 11.1 11.0 99 1016.2 7.6 S 9.2 0.0 0.0
20:14 11.2 11.1 99 1016.1 6.9 S 9.2 0.0 0.0
20:16 11.2 11.1 99 1016.1 8.3 S 9.2 0.0 0.0
20:16 11.2 11.1 99 1016.1 8.3 S 9.2 0.0 0.0
20:18 11.2 11.1 99 1016.0 6.0 S 8.3 0.0 0.0
20:19 11.2 11.1 99 1016.2 6.9 S 8.3 0.0 0.0
20:20 11.2 11.1 99 1016.0 8.3 S 8.3 0.0 0.0
20:21 11.2 11.1 99 1016.1 6.9 S 8.3 0.0 0.0
20:22 11.2 11.1 99 1016.1 6.0 SE 8.3 0.0 0.0
20:23 11.2 11.1 99 1016.2 7.6 S 8.3 0.0 0.0
20:24 11.2 11.1 99 1016.1 7.6 S 8.3 0.0 0.0
20:25 11.2 11.1 99 1016.2 7.6 S 8.3 0.0 0.0
20:25 11.2 11.1 99 1016.2 7.6 S 8.3 0.0 0.0
20:26 11.2 11.1 99 1016.2 9.2 S 9.2 0.0 0.0
20:28 11.2 11.1 99 1016.1 5.4 S 9.2 0.0 0.0
20:29 11.2 11.1 99 1016.1 8.3 S 9.2 0.0 0.0
20:30 11.3 11.2 99 1016.0 7.6 S 9.2 0.0 0.0
20:31 11.2 11.1 99 1016.0 6.9 S 9.2 0.0 0.0
20:32 11.2 11.1 99 1016.2 6.9 SE 9.2 0.0 0.0
20:32 11.2 11.1 99 1016.2 6.9 SE 9.2 0.0 0.0
20:34 11.2 11.1 99 1016.0 6.9 WSW 9.2 0.0 0.0
20:35 11.2 11.1 99 1016.0 8.3 WSW 9.2 0.0 0.0
20:36 11.2 11.1 99 1016.0 6.9 WSW 9.2 0.0 0.0
20:37 11.2 11.1 99 1015.9 5.4 WSW 9.2 0.0 0.0
20:37 11.2 11.1 99 1015.9 5.4 WSW 9.2 0.0 0.0
20:39 11.3 11.2 99 1016.0 7.6 S 8.3 0.0 0.0
20:40 11.2 11.1 99 1016.0 8.3 WNW 8.3 0.0 0.0
20:41 11.3 11.2 99 1016.0 4.5 S 8.3 0.0 0.0
20:41 11.3 11.2 99 1016.0 4.5 S 8.3 0.0 0.0
20:42 11.3 11.2 99 1016.1 6.0 S 8.3 0.0 0.0
20:44 11.2 11.1 99 1015.8 6.9 S 8.3 0.0 0.0
20:45 11.2 11.1 99 1015.9 8.3 S 8.3 0.0 0.0
20:45 11.2 11.1 99 1015.9 8.3 S 8.3 0.0 0.0
20:47 11.2 11.1 99 1015.9 6.9 S 8.3 0.0 0.0
20:48 11.2 11.1 99 1016.0 6.0 S 8.3 0.0 0.0
20:48 11.2 11.1 99 1016.0 6.0 S 8.3 0.0 0.0
20:49 11.2 11.1 99 1015.9 5.4 S 8.3 0.0 0.0
20:51 11.2 11.1 99 1015.8 7.6 S 8.3 0.0 0.0
20:52 11.2 11.1 99 1015.8 6.9 WSW 8.3 0.0 0.0
20:53 11.2 11.1 99 1015.9 7.6 S 8.3 0.0 0.0
20:54 11.2 11.1 99 1015.8 6.0 S 8.3 0.0 0.0
20:55 11.1 11.0 99 1015.8 9.2 S 9.2 0.0 0.0
20:56 11.1 11.0 99 1015.9 7.6 S 9.2 0.0 0.0
20:57 11.1 11.0 99 1015.7 7.6 WSW 9.2 0.0 0.0
20:57 11.1 11.0 99 1015.7 7.6 WSW 9.2 0.0 0.0
20:58 11.1 11.0 99 1015.8 7.6 S 9.2 0.0 0.0
20:59 11.1 11.0 99 1015.7 6.0 WNW 9.2 0.0 0.0
21:01 11.1 11.0 99 1015.9 6.0 WNW 9.2 0.0 0.0
21:02 11.1 11.0 99 1015.8 7.6 SE 9.2 0.0 0.0
21:03 11.0 10.9 99 1015.8 7.6 S 9.2 0.0 0.0
21:04 11.0 10.9 99 1015.9 7.6 S 9.2 0.0 0.0
21:05 11.0 10.9 99 1015.7 6.9 S 9.2 0.0 0.0
21:06 11.0 10.9 99 1015.9 6.9 S 7.6 0.0 0.0
21:06 11.0 10.9 99 1015.9 6.9 S 7.6 0.0 0.0
21:08 11.0 10.9 99 1015.8 6.9 S 7.6 0.0 0.0
21:08 11.0 10.9 99 1015.8 6.9 S 7.6 0.0 0.0
21:09 11.0 10.9 99 1015.8 6.0 S 7.6 0.0 0.0
21:11 10.9 10.8 99 1016.0 5.4 S 7.6 0.0 0.0
21:11 10.9 10.8 99 1016.0 5.4 S 7.6 0.0 0.0
21:12 10.9 10.8 99 1016.0 6.9 S 7.6 0.0 0.0
21:14 10.9 10.8 99 1016.2 5.4 S 7.6 0.0 0.0
21:14 10.9 10.8 99 1016.2 5.4 S 7.6 0.0 0.0
21:16 10.9 10.8 99 1016.0 3.8 S 7.6 0.0 0.0
21:17 10.8 10.7 99 1015.9 6.0 S 7.6 0.0 0.0
21:17 10.8 10.7 99 1015.9 6.0 S 7.6 0.0 0.0
21:19 10.8 10.7 99 1015.9 6.9 SE 6.9 0.0 0.0
21:20 10.8 10.7 99 1015.8 5.4 S 6.9 0.0 0.0
21:21 10.8 10.7 99 1015.8 6.0 S 6.9 0.0 0.0
21:22 10.8 10.7 99 1015.8 6.0 S 6.9 0.0 0.0
21:23 10.8 10.7 99 1015.8 6.0 S 6.9 0.0 0.0
21:24 10.7 10.6 99 1015.7 4.5 S 6.9 0.0 0.0
21:25 10.7 10.6 99 1015.7 5.4 WSW 6.9 0.0 0.0
21:25 10.7 10.6 99 1015.7 5.4 WSW 6.9 0.0 0.0
21:26 10.7 10.6 99 1015.9 4.5 S 6.9 0.0 0.0
21:27 10.7 10.6 99 1015.8 6.0 S 6.9 0.0 0.0
21:29 10.7 10.6 99 1015.8 4.5 S 6.0 0.0 0.0
21:30 10.7 10.6 99 1015.7 6.0 S 6.0 0.0 0.0
21:31 10.6 10.5 99 1015.7 3.8 S 6.0 0.0 0.0
21:32 10.6 10.5 99 1015.9 5.4 S 6.0 0.0 0.0
21:33 10.6 10.5 99 1015.9 5.4 WSW 6.0 0.0 0.0
21:34 10.6 10.5 99 1015.7 4.5 WSW 6.0 0.0 0.0
21:35 10.6 10.5 99 1015.7 5.4 WSW 6.0 0.0 0.0
21:35 10.6 10.5 99 1015.7 5.4 WSW 6.0 0.0 0.0
21:36 10.6 10.5 99 1015.7 3.8 WSW 6.0 0.0 0.0
21:38 10.6 10.5 99 1015.8 4.5 S 6.0 0.0 0.0
21:39 10.6 10.5 99 1015.9 6.0 S 6.0 0.0 0.0
21:40 10.5 10.4 99 1015.8 3.8 S 6.0 0.0 0.0
21:41 10.5 10.4 99 1015.7 3.8 N 6.0 0.0 0.0
21:42 10.5 10.4 99 1015.8 4.5 N 6.0 0.0 0.0
21:43 10.5 10.4 99 1015.6 5.4 S 6.0 0.0 0.0
21:44 10.5 10.4 99 1015.6 4.5 S 6.0 0.0 0.0
21:45 10.5 10.4 99 1015.6 3.8 S 6.0 0.0 0.0
21:45 10.5 10.4 99 1015.6 3.8 S 6.0 0.0 0.0
21:46 10.5 10.4 99 1015.7 4.5 S 6.0 0.0 0.0
21:47 10.5 10.4 99 1015.7 3.8 S 6.0 0.0 0.0
21:49 10.4 10.3 99 1015.5 3.1 S 5.4 0.0 0.0
21:50 10.4 10.3 99 1015.6 4.5 S 5.4 0.0 0.0
21:51 10.4 10.3 99 1015.6 4.5 S 5.4 0.0 0.0
21:52 10.4 10.3 99 1015.5 5.4 SE 5.4 0.0 0.0
21:53 10.4 10.3 99 1015.5 6.9 S 6.9 0.0 0.0
21:54 10.4 10.3 99 1015.5 6.0 WSW 6.9 0.0 0.0
21:55 10.4 10.3 99 1015.5 4.5 WSW 6.9 0.0 0.0
21:55 10.4 10.3 99 1015.5 4.5 WSW 6.9 0.0 0.0
21:56 10.4 10.3 99 1015.5 5.4 S 6.9 0.0 0.0
21:58 10.4 10.3 99 1015.4 6.9 S 6.9 0.0 0.0
21:59 10.4 10.3 99 1015.5 4.5 S 6.9 0.0 0.0
22:00 10.4 10.3 99 1015.5 6.0 WSW 6.9 0.0 0.0
22:01 10.4 10.3 99 1015.4 6.0 WSW 6.9 0.0 0.0
22:02 10.4 10.3 99 1015.6 6.0 WSW 6.9 0.0 0.0
22:03 10.4 10.3 99 1015.5 6.0 WSW 6.9 0.0 0.0
22:04 10.4 10.3 99 1015.3 6.0 WSW 6.9 0.0 0.0
22:04 10.4 10.3 99 1015.3 6.0 WSW 6.9 0.0 0.0
22:05 10.4 10.3 99 1015.5 5.4 S 6.9 0.0 0.0
22:07 10.4 10.3 99 1015.5 7.6 S 7.6 0.0 0.0
22:08 10.5 10.4 99 1015.5 3.8 S 7.6 0.0 0.0
22:08 10.5 10.4 99 1015.5 3.8 S 7.6 0.0 0.0
22:10 10.5 10.4 99 1015.5 5.4 S 7.6 0.0 0.0
22:10 10.5 10.4 99 1015.5 5.4 S 7.6 0.0 0.0
22:12 10.4 10.3 99 1015.4 6.0 WSW 7.6 0.0 0.0
22:13 10.5 10.4 99 1015.5 5.4 S 7.6 0.0 0.0
22:13 10.5 10.4 99 1015.5 5.4 S 7.6 0.0 0.0
22:15 10.4 10.3 99 1015.4 6.0 S 7.6 0.0 0.0
22:15 10.4 10.3 99 1015.4 6.0 S 7.6 0.0 0.0
22:16 10.5 10.4 99 1015.5 5.4 S 7.6 0.0 0.0
22:18 10.5 10.4 99 1015.5 3.8 S 7.6 0.0 0.0
22:18 10.5 10.4 99 1015.5 3.8 S 7.6 0.0 0.0
22:20 10.5 10.4 99 1015.5 3.8 S 7.6 0.0 0.0
22:21 10.5 10.4 99 1015.5 4.5 SE 7.6 0.0 0.0
22:22 10.5 10.4 99 1015.4 3.1 S 7.6 0.0 0.0
22:23 10.4 10.3 99 1015.5 4.5 WSW 6.0 0.0 0.0
22:23 10.4 10.3 99 1015.5 4.5 WSW 6.0 0.0 0.0
22:24 10.4 10.3 99 1015.3 6.0 WSW 6.0 0.0 0.0
22:25 10.5 10.4 99 1015.5 3.8 WSW 6.0 0.0 0.0
22:27 10.5 10.4 99 1015.5 4.5 WSW 6.0 0.0 0.0
22:28 10.5 10.4 99 1015.4 4.5 WSW 6.0 0.0 0.0
22:29 10.5 10.4 99 1015.3 3.8 WSW 6.0 0.0 0.0
22:30 10.5 10.4 99 1015.4 3.1 WSW 6.0 0.0 0.0
22:31 10.5 10.4 99 1015.3 3.8 W 6.0 0.0 0.0
22:32 10.5 10.4 99 1015.2 3.1 WSW 6.0 0.0 0.0
22:32 10.5 10.4 99 1015.2 3.1 WSW 6.0 0.0 0.0
22:33 10.5 10.4 99 1015.3 3.1 S 6.0 0.0 0.0
22:35 10.5 10.4 99 1015.2 3.1 S 4.5 0.0 0.0
22:36 10.5 10.4 99 1015.2 5.4 S 6.9 0.0 0.0
22:37 10.5 10.4 99 1015.2 3.1 N 6.9 0.0 0.0
22:38 10.5 10.4 99 1015.2 3.1 S 6.9 0.0 0.0
22:39 10.4 10.3 99 1015.2 5.4 S 6.9 0.0 0.0
22:39 10.4 10.3 99 1015.2 5.4 S 6.9 0.0 0.0
22:40 10.4 10.3 99 1015.2 4.5 WSW 6.9 0.0 0.0
22:41 10.4 10.3 99 1015.2 4.5 S 6.9 0.0 0.0
22:42 10.4 10.3 99 1015.2 3.8 S 6.9 0.0 0.0
22:44 10.4 10.3 99 1015.2 4.5 S 6.9 0.0 0.0
22:45 10.5 10.4 99 1015.2 3.8 WSW 6.9 0.0 0.0
22:46 10.4 10.3 99 1015.1 3.8 WSW 5.4 0.0 0.0
22:47 10.4 10.3 99 1015.2 3.8 SE 5.4 0.0 0.0
22:48 10.4 10.3 99 1015.0 3.8 SE 5.4 0.0 0.0
22:48 10.4 10.3 99 1015.0 3.8 SE 5.4 0.0 0.0
22:50 10.4 10.3 99 1015.1 3.8 S 5.4 0.0 0.0
22:50 10.4 10.3 99 1015.1 3.8 S 5.4 0.0 0.0
22:52 10.4 10.3 99 1015.2 3.8 S 5.4 0.0 0.0
22:52 10.4 10.3 99 1015.2 3.8 S 5.4 0.0 0.0
22:53 10.4 10.3 99 1015.1 6.0 S 6.0 0.0 0.0
22:53 10.4 10.3 99 1015.1 6.0 S 6.0 0.0 0.0
22:55 10.4 10.3 99 1015.1 3.8 WSW 6.0 0.0 0.0
22:55 10.4 10.3 99 1015.1 3.8 WSW 6.0 0.0 0.0
22:57 10.4 10.3 99 1014.9 4.5 WSW 6.0 0.0 0.0
22:59 10.4 10.3 99 1015.0 4.5 S 6.0 0.0 0.0
23:00 10.4 10.3 99 1015.1 3.8 WSW 6.0 0.0 0.0
23:01 10.4 10.3 99 1015.0 3.8 WSW 6.0 0.0 0.0
23:02 10.4 10.3 99 1014.9 3.8 WSW 6.0 0.0 0.0
23:03 10.4 10.3 99 1015.1 3.8 WSW 6.0 0.0 0.0
23:04 10.4 10.3 99 1014.9 3.8 WSW 5.4 0.0 0.0
23:04 10.4 10.3 99 1014.9 3.8 WSW 5.4 0.0 0.0
23:05 10.3 10.2 99 1015.0 5.4 S 5.4 0.0 0.0
23:06 10.3 10.2 99 1015.0 4.5 S 5.4 0.0 0.0
23:08 10.3 10.2 99 1014.9 3.1 SE 5.4 0.0 0.0
23:08 10.3 10.2 99 1014.9 3.1 SE 5.4 0.0 0.0
23:10 10.3 10.2 99 1015.1 3.8 SE 5.4 0.0 0.0
23:11 10.3 10.2 99 1014.9 3.8 SE 5.4 0.0 0.0
23:11 10.3 10.2 99 1014.9 3.8 SE 5.4 0.0 0.0
23:13 10.3 10.2 99 1015.0 3.1 SE 5.4 0.0 0.0
23:13 10.3 10.2 99 1015.0 3.1 SE 5.4 0.0 0.0
23:14 10.3 10.2 99 1015.0 5.4 SE 5.4 0.0 0.0
23:16 10.3 10.2 99 1015.0 4.5 SE 5.4 0.0 0.0
23:16 10.3 10.2 99 1015.0 4.5 SE 5.4 0.0 0.0
23:18 10.3 10.2 99 1015.0 3.8 WSW 5.4 0.0 0.0
23:18 10.3 10.2 99 1015.0 3.8 WSW 5.4 0.0 0.0
23:19 10.3 10.2 99 1014.8 3.1 S 5.4 0.0 0.0
23:21 10.3 10.2 99 1014.8 3.8 S 5.4 0.0 0.0
23:21 10.3 10.2 99 1014.8 3.8 S 5.4 0.0 0.0
23:22 10.3 10.2 99 1015.0 3.1 S 5.4 0.0 0.0
23:23 10.3 10.2 99 1015.0 3.8 S 5.4 0.0 0.0
23:24 10.2 10.1 99 1014.8 4.5 S 4.5 0.0 0.0
23:26 10.2 10.1 99 1015.0 4.5 S 4.5 0.0 0.0
23:27 10.2 10.1 99 1014.9 3.8 S 4.5 0.0 0.0
23:28 10.2 10.1 99 1014.9 5.4 S 5.4 0.0 0.0
23:29 10.2 10.1 99 1015.0 5.4 WSW 5.4 0.0 0.0
23:30 10.2 10.1 99 1014.9 6.9 WSW 6.9 0.0 0.0
23:30 10.2 10.1 99 1014.9 6.9 WSW 6.9 0.0 0.0
23:31 10.2 10.1 99 1014.7 5.4 N 6.9 0.0 0.0
23:32 10.2 10.1 99 1014.9 6.0 S 6.9 0.0 0.0
23:33 10.2 10.1 99 1014.8 5.4 SE 6.9 0.0 0.0
23:35 10.2 10.1 99 1014.9 5.4 S 6.9 0.0 0.0
23:35 10.2 10.1 99 1014.9 5.4 S 6.9 0.0 0.0
23:36 10.2 10.1 99 1015.0 6.0 S 6.9 0.0 0.0
23:38 10.3 10.2 99 1014.9 6.0 S 6.9 0.0 0.0
23:39 10.3 10.2 99 1014.9 6.0 WSW 6.9 0.0 0.0
23:40 10.3 10.2 99 1014.8 6.0 S 6.9 0.0 0.0
23:41 10.3 10.2 99 1014.8 6.0 S 6.9 0.0 0.0
23:42 10.3 10.2 99 1014.7 5.4 S 6.9 0.0 0.0
23:43 10.3 10.2 99 1014.7 6.0 S 6.9 0.0 0.0
23:43 10.3 10.2 99 1014.7 6.0 S 6.9 0.0 0.0
23:44 10.3 10.2 99 1014.8 5.4 S 6.9 0.0 0.0
23:45 10.3 10.2 99 1014.8 6.9 SE 6.9 0.0 0.0
23:47 10.3 10.2 99 1015.0 4.5 S 6.9 0.0 0.0
23:48 10.3 10.2 99 1014.9 6.0 WSW 6.9 0.0 0.0
23:49 10.3 10.2 99 1015.0 6.0 S 6.9 0.0 0.0
23:50 10.3 10.2 99 1014.9 6.0 S 6.9 0.0 0.0
23:50 10.3 10.2 99 1014.9 6.0 S 6.9 0.0 0.0
23:52 10.4 10.3 99 1015.0 6.9 S 6.9 0.0 0.0
23:53 10.4 10.3 99 1014.9 6.9 NNW 6.9 0.0 0.0
23:54 10.4 10.3 99 1015.1 7.6 WSW 7.6 0.0 0.0
23:55 10.4 10.3 99 1015.0 5.4 S 7.6 0.0 0.0
23:55 10.4 10.3 99 1015.0 5.4 S 7.6 0.0 0.0
23:56 10.4 10.3 99 1015.0 5.4 S 7.6 0.0 0.0
23:57 10.4 10.3 99 1014.9 5.4 WSW 7.6 0.0 0.0
23:58 10.4 10.3 99 1015.0 6.0 WSW 7.6 0.0 0.0
23:58 10.4 10.3 99 1015.0 6.0 WSW 7.6 0.0 0.0

UK - WEATHER STATION TOPSITES - UK World Weather Websites

This is a private weather station, never base important decisions or events on data from this weather station. Although every effort has been made to make the data as accurate as possible it does not meet MetOffice standards. It is proved as a guide of local weather conditions. We accept no liability for any loss which may arise from use of the data.

Copyright © Carnkie Weather 2009 - 2017.